NOAA Web Site Link Tides and Currents Home Page Transparent placeholder image

PORTS® Data Listing: 8638614 Willoughby Degaussing Station, VA

CO-OPS RAW PORTS DATA

************************      PRELIMINARY DATA      ************************** 

     THIS RAW DATA HAS NOT BEEN SUBJECT TO THE NATIONAL OCEAN SERVICE'S        
     QUALITY CONTROL OR QUALITY ASSURANCE PROCEDURES AND DOES NOT MEET         
     THE CRITERIA AND STANDARDS OF OFFICIAL NATIONAL OCEAN SERVICE             
     DATA.  IT IS RELEASED FOR LIMITED PUBLIC USE AS PRELIMINARY DATA TO       
     BE USED ONLY WITH APPROPRIATE CAUTION.                                    

************************      PRELIMINARY DATA      ************************** 


       CD   -   Calendar date
       T    -   Time
       TZ   -   Timezone
       PW   -   Predicted water level (feet above MLLW)
       OW   -   Observed water level (feet above MLLW)
       WS   -   Wind speed (knots)
       WD   -   Wind direction (degrees true)
       WG   -   Wind gust (knots)
       AT   -   Air temperature (degrees farenheit)
       WT   -   Water temperature (degrees farenheit)
       AP   -   Air pressure (millibars)
       SA   -   Salinty (PSU - Practical Salinity Units)
       SG   -   Specific gravity
       RH   -   Relative humidity
       AG   -   Air gap (feet)
       VI   -   Visibility (nautical miles)

       ** NOTE **
       A variable that has its data fields filled with "9"s, indicates that
       data was not collected for that sample period.
       **********


STATION NAME: Willoughby Degaussing Station (8638614)
****************************************************************************************************
    CD       T    TZ    PW     OW    WS   WD   WG    AT    WT    AP    SA    SG     RH    AG   VI
****************************************************************************************************
2019/05/21 17:30 EDT  -99.99 -99.99   15   21   18  67.8 -99.9 1015.6 -9.9 -9.999 -99.9 -99.99 -9.99
2019/05/21 17:36 EDT  -99.99 -99.99   17   21   19  67.8 -99.9 1015.7 -9.9 -9.999 -99.9 -99.99 -9.99
2019/05/21 17:42 EDT  -99.99 -99.99   17   23   19  67.8 -99.9 1015.7 -9.9 -9.999 -99.9 -99.99 -9.99
2019/05/21 17:48 EDT  -99.99 -99.99   16   28   19  67.8 -99.9 1015.7 -9.9 -9.999 -99.9 -99.99 -9.99
2019/05/21 17:54 EDT  -99.99 -99.99   16   28   18  68.2 -99.9 1015.8 -9.9 -9.999 -99.9 -99.99 -9.99
2019/05/21 18:00 EDT  -99.99 -99.99   17   30   18  68.0 -99.9 1015.8 -9.9 -9.999 -99.9 -99.99 -9.99
2019/05/21 18:06 EDT  -99.99 -99.99   17   30   19  68.0 -99.9 1015.9 -9.9 -9.999 -99.9 -99.99 -9.99
2019/05/21 18:12 EDT  -99.99 -99.99   15   30   18  68.0 -99.9 1016.0 -9.9 -9.999 -99.9 -99.99 -9.99
2019/05/21 18:18 EDT  -99.99 -99.99   16   34   19  68.0 -99.9 1016.1 -9.9 -9.999 -99.9 -99.99 -9.99
2019/05/21 18:24 EDT  -99.99 -99.99   17   27   18  68.2 -99.9 1016.3 -9.9 -9.999 -99.9 -99.99 -9.99
2019/05/21 18:30 EDT  -99.99 -99.99   16   27   18  68.2 -99.9 1016.2 -9.9 -9.999 -99.9 -99.99 -9.99
2019/05/21 18:36 EDT  -99.99 -99.99   16   27   18  68.4 -99.9 1016.3 -9.9 -9.999 -99.9 -99.99 -9.99
2019/05/21 18:42 EDT  -99.99 -99.99   15   30   18  68.4 -99.9 1016.3 -9.9 -9.999 -99.9 -99.99 -9.99
2019/05/21 18:48 EDT  -99.99 -99.99   16   27   18  68.4 -99.9 1016.4 -9.9 -9.999 -99.9 -99.99 -9.99
2019/05/21 18:54 EDT  -99.99 -99.99   16   31   18  68.4 -99.9 1016.4 -9.9 -9.999 -99.9 -99.99 -9.99
2019/05/21 19:00 EDT  -99.99 -99.99   17   29   19  68.4 -99.9 1016.5 -9.9 -9.999 -99.9 -99.99 -9.99
2019/05/21 19:06 EDT  -99.99 -99.99   16   30   19  68.4 -99.9 1016.6 -9.9 -9.999 -99.9 -99.99 -9.99
2019/05/21 19:12 EDT  -99.99 -99.99   17   26   19  68.4 -99.9 1016.7 -9.9 -9.999 -99.9 -99.99 -9.99
2019/05/21 19:18 EDT  -99.99 -99.99   17   30   19  68.5 -99.9 1016.8 -9.9 -9.999 -99.9 -99.99 -9.99
2019/05/21 19:24 EDT  -99.99 -99.99   16   28   19  68.5 -99.9 1016.8 -9.9 -9.999 -99.9 -99.99 -9.99
2019/05/21 19:30 EDT  -99.99 -99.99   16   39   19  68.4 -99.9 1016.8 -9.9 -9.999 -99.9 -99.99 -9.99
2019/05/21 19:36 EDT  -99.99 -99.99   15   32   17  68.4 -99.9 1016.8 -9.9 -9.999 -99.9 -99.99 -9.99
2019/05/21 19:42 EDT  -99.99 -99.99   16   33   18  68.4 -99.9 1016.8 -9.9 -9.999 -99.9 -99.99 -9.99
2019/05/21 19:48 EDT  -99.99 -99.99   17   36   19  68.4 -99.9 1016.8 -9.9 -9.999 -99.9 -99.99 -9.99
2019/05/21 19:54 EDT  -99.99 -99.99   16   32   18  68.4 -99.9 1016.9 -9.9 -9.999 -99.9 -99.99 -9.99
2019/05/21 20:00 EDT  -99.99 -99.99   16   35   17  68.4 -99.9 1017.0 -9.9 -9.999 -99.9 -99.99 -9.99
2019/05/21 20:06 EDT  -99.99 -99.99   15   31   19  68.7 -99.9 1017.1 -9.9 -9.999 -99.9 -99.99 -9.99
2019/05/21 20:12 EDT  -99.99 -99.99   15   29   17  68.5 -99.9 1017.1 -9.9 -9.999 -99.9 -99.99 -9.99
2019/05/21 20:18 EDT  -99.99 -99.99   15   24   17  68.7 -99.9 1017.1 -9.9 -9.999 -99.9 -99.99 -9.99
2019/05/21 20:24 EDT  -99.99 -99.99   14   26   16  68.7 -99.9 1017.1 -9.9 -9.999 -99.9 -99.99 -9.99
2019/05/21 20:30 EDT  -99.99 -99.99   15   35   16  68.5 -99.9 1017.0 -9.9 -9.999 -99.9 -99.99 -9.99
2019/05/21 20:36 EDT  -99.99 -99.99   15   24   17  68.5 -99.9 1017.2 -9.9 -9.999 -99.9 -99.99 -9.99
2019/05/21 20:42 EDT  -99.99 -99.99   13   25   16  68.7 -99.9 1017.3 -9.9 -9.999 -99.9 -99.99 -9.99
2019/05/21 20:48 EDT  -99.99 -99.99   12   21   17  68.7 -99.9 1017.4 -9.9 -9.999 -99.9 -99.99 -9.99
2019/05/21 20:54 EDT  -99.99 -99.99   13   20   14  68.7 -99.9 1017.5 -9.9 -9.999 -99.9 -99.99 -9.99
2019/05/21 21:00 EDT  -99.99 -99.99   12   21   15  68.7 -99.9 1017.6 -9.9 -9.999 -99.9 -99.99 -9.99
2019/05/21 21:06 EDT  -99.99 -99.99   12   19   15  68.7 -99.9 1017.7 -9.9 -9.999 -99.9 -99.99 -9.99
2019/05/21 21:12 EDT  -99.99 -99.99   11    7   13  68.5 -99.9 1017.8 -9.9 -9.999 -99.9 -99.99 -9.99
2019/05/21 21:18 EDT  -99.99 -99.99   10   12   11  68.4 -99.9 1017.8 -9.9 -9.999 -99.9 -99.99 -9.99
2019/05/21 21:24 EDT  -99.99 -99.99   10   17   12  68.5 -99.9 1017.8 -9.9 -9.999 -99.9 -99.99 -9.99
2019/05/21 21:30 EDT  -99.99 -99.99   11   17   13  68.5 -99.9 1017.9 -9.9 -9.999 -99.9 -99.99 -9.99
2019/05/21 21:36 EDT  -99.99 -99.99   11   15   14  68.5 -99.9 1018.0 -9.9 -9.999 -99.9 -99.99 -9.99
2019/05/21 21:42 EDT  -99.99 -99.99   11   15   14  68.5 -99.9 1018.1 -9.9 -9.999 -99.9 -99.99 -9.99
2019/05/21 21:48 EDT  -99.99 -99.99   11   10   14  68.5 -99.9 1018.1 -9.9 -9.999 -99.9 -99.99 -9.99
2019/05/21 21:54 EDT  -99.99 -99.99   12   12   16  68.5 -99.9 1018.3 -9.9 -9.999 -99.9 -99.99 -9.99
2019/05/21 22:00 EDT  -99.99 -99.99   11   14   12  68.5 -99.9 1018.2 -9.9 -9.999 -99.9 -99.99 -9.99
2019/05/21 22:06 EDT  -99.99 -99.99   11    6   13  68.5 -99.9 1018.4 -9.9 -9.999 -99.9 -99.99 -9.99
2019/05/21 22:12 EDT  -99.99 -99.99   12   10   15  68.5 -99.9 1018.5 -9.9 -9.999 -99.9 -99.99 -9.99
2019/05/21 22:18 EDT  -99.99 -99.99   11   11   13  68.7 -99.9 1018.5 -9.9 -9.999 -99.9 -99.99 -9.99
2019/05/21 22:24 EDT  -99.99 -99.99   10   21   12  68.9 -99.9 1018.6 -9.9 -9.999 -99.9 -99.99 -9.99
2019/05/21 22:30 EDT  -99.99 -99.99   11   11   13  68.7 -99.9 1018.8 -9.9 -9.999 -99.9 -99.99 -9.99
2019/05/21 22:36 EDT  -99.99 -99.99   11   17   12  68.9 -99.9 1018.8 -9.9 -9.999 -99.9 -99.99 -9.99
2019/05/21 22:42 EDT  -99.99 -99.99   11    7   12  68.7 -99.9 1018.9 -9.9 -9.999 -99.9 -99.99 -9.99
2019/05/21 22:48 EDT  -99.99 -99.99   10   12   12  68.9 -99.9 1018.9 -9.9 -9.999 -99.9 -99.99 -9.99
2019/05/21 22:54 EDT  -99.99 -99.99   11   28   14  69.1 -99.9 1018.9 -9.9 -9.999 -99.9 -99.99 -9.99
2019/05/21 23:00 EDT  -99.99 -99.99   10   19   14  68.9 -99.9 1018.9 -9.9 -9.999 -99.9 -99.99 -9.99
2019/05/21 23:06 EDT  -99.99 -99.99   11   23   13  69.3 -99.9 1019.0 -9.9 -9.999 -99.9 -99.99 -9.99
2019/05/21 23:12 EDT  -99.99 -99.99   11   28   14  69.3 -99.9 1019.0 -9.9 -9.999 -99.9 -99.99 -9.99
2019/05/21 23:18 EDT  -99.99 -99.99   12   33   14  68.9 -99.9 1019.0 -9.9 -9.999 -99.9 -99.99 -9.99
2019/05/21 23:24 EDT  -99.99 -99.99   11   44   13  68.7 -99.9 1019.0 -9.9 -9.999 -99.9 -99.99 -9.99
2019/05/21 23:30 EDT  -99.99 -99.99   12   29   14  68.9 -99.9 1019.1 -9.9 -9.999 -99.9 -99.99 -9.99
2019/05/21 23:36 EDT  -99.99 -99.99   13   35   14  68.7 -99.9 1019.2 -9.9 -9.999 -99.9 -99.99 -9.99
2019/05/21 23:42 EDT  -99.99 -99.99   12   39   15  68.7 -99.9 1019.2 -9.9 -9.999 -99.9 -99.99 -9.99
2019/05/21 23:48 EDT  -99.99 -99.99   13   39   15  68.9 -99.9 1019.3 -9.9 -9.999 -99.9 -99.99 -9.99
2019/05/21 23:54 EDT  -99.99 -99.99   13   50   16  68.7 -99.9 1019.2 -9.9 -9.999 -99.9 -99.99 -9.99
2019/05/22 00:00 EDT  -99.99 -99.99   11   40   15  68.9 -99.9 1019.3 -9.9 -9.999 -99.9 -99.99 -9.99
2019/05/22 00:06 EDT  -99.99 -99.99   10   43   15  68.5 -99.9 1019.3 -9.9 -9.999 -99.9 -99.99 -9.99
2019/05/22 00:12 EDT  -99.99 -99.99   12   45   14  68.4 -99.9 1019.3 -9.9 -9.999 -99.9 -99.99 -9.99
2019/05/22 00:18 EDT  -99.99 -99.99   11   44   14  68.4 -99.9 1019.2 -9.9 -9.999 -99.9 -99.99 -9.99
2019/05/22 00:24 EDT  -99.99 -99.99   11   48   13  68.2 -99.9 1019.1 -9.9 -9.999 -99.9 -99.99 -9.99
2019/05/22 00:30 EDT  -99.99 -99.99   11   48   12  68.2 -99.9 1019.2 -9.9 -9.999 -99.9 -99.99 -9.99
2019/05/22 00:36 EDT  -99.99 -99.99   11   49   12  68.0 -99.9 1019.3 -9.9 -9.999 -99.9 -99.99 -9.99
2019/05/22 00:42 EDT  -99.99 -99.99   11   52   12  68.2 -99.9 1019.3 -9.9 -9.999 -99.9 -99.99 -9.99
2019/05/22 00:48 EDT  -99.99 -99.99   11   49   12  68.0 -99.9 1019.2 -9.9 -9.999 -99.9 -99.99 -9.99
2019/05/22 00:54 EDT  -99.99 -99.99   11   54   13  68.0 -99.9 1019.2 -9.9 -9.999 -99.9 -99.99 -9.99
2019/05/22 01:00 EDT  -99.99 -99.99   10   53   12  68.0 -99.9 1019.3 -9.9 -9.999 -99.9 -99.99 -9.99
2019/05/22 01:06 EDT  -99.99 -99.99   10   51   12  68.0 -99.9 1019.3 -9.9 -9.999 -99.9 -99.99 -9.99
2019/05/22 01:12 EDT  -99.99 -99.99   10   50   12  68.0 -99.9 1019.3 -9.9 -9.999 -99.9 -99.99 -9.99
2019/05/22 01:18 EDT  -99.99 -99.99   11   56   13  68.0 -99.9 1019.3 -9.9 -9.999 -99.9 -99.99 -9.99
2019/05/22 01:24 EDT  -99.99 -99.99   11   57   13  68.0 -99.9 1019.3 -9.9 -9.999 -99.9 -99.99 -9.99
2019/05/22 01:30 EDT  -99.99 -99.99   11   59   13  68.0 -99.9 1019.3 -9.9 -9.999 -99.9 -99.99 -9.99
2019/05/22 01:36 EDT  -99.99 -99.99   13   53   14  68.0 -99.9 1019.3 -9.9 -9.999 -99.9 -99.99 -9.99
2019/05/22 01:42 EDT  -99.99 -99.99   11   53   13  68.0 -99.9 1019.4 -9.9 -9.999 -99.9 -99.99 -9.99
2019/05/22 01:48 EDT  -99.99 -99.99   11   50   13  68.0 -99.9 1019.6 -9.9 -9.999 -99.9 -99.99 -9.99
2019/05/22 01:54 EDT  -99.99 -99.99   11   46   12  68.0 -99.9 1019.6 -9.9 -9.999 -99.9 -99.99 -9.99
2019/05/22 02:00 EDT  -99.99 -99.99   11   54   12  68.0 -99.9 1019.6 -9.9 -9.999 -99.9 -99.99 -9.99
2019/05/22 02:06 EDT  -99.99 -99.99   11   49   13  68.2 -99.9 1019.7 -9.9 -9.999 -99.9 -99.99 -9.99
2019/05/22 02:12 EDT  -99.99 -99.99   11   55   12  68.2 -99.9 1019.7 -9.9 -9.999 -99.9 -99.99 -9.99
2019/05/22 02:18 EDT  -99.99 -99.99   10   50   13  68.2 -99.9 1019.7 -9.9 -9.999 -99.9 -99.99 -9.99
2019/05/22 02:24 EDT  -99.99 -99.99   11   46   12  68.0 -99.9 1019.8 -9.9 -9.999 -99.9 -99.99 -9.99
2019/05/22 02:30 EDT  -99.99 -99.99    9   57   11  67.8 -99.9 1019.8 -9.9 -9.999 -99.9 -99.99 -9.99
2019/05/22 02:36 EDT  -99.99 -99.99    9   58   12  67.8 -99.9 1019.8 -9.9 -9.999 -99.9 -99.99 -9.99
2019/05/22 02:42 EDT  -99.99 -99.99    8   49   10  67.8 -99.9 1020.0 -9.9 -9.999 -99.9 -99.99 -9.99
2019/05/22 02:48 EDT  -99.99 -99.99    9   49   11  67.6 -99.9 1020.0 -9.9 -9.999 -99.9 -99.99 -9.99
2019/05/22 02:54 EDT  -99.99 -99.99    9   51   11  67.8 -99.9 1020.0 -9.9 -9.999 -99.9 -99.99 -9.99
2019/05/22 03:00 EDT  -99.99 -99.99    9   47   10  67.8 -99.9 1020.0 -9.9 -9.999 -99.9 -99.99 -9.99
2019/05/22 03:06 EDT  -99.99 -99.99    8   40   11  67.8 -99.9 1020.0 -9.9 -9.999 -99.9 -99.99 -9.99
2019/05/22 03:12 EDT  -99.99 -99.99    8   47   10  67.8 -99.9 1020.1 -9.9 -9.999 -99.9 -99.99 -9.99
2019/05/22 03:18 EDT  -99.99 -99.99    9   39   10  67.8 -99.9 1020.1 -9.9 -9.999 -99.9 -99.99 -9.99
2019/05/22 03:24 EDT  -99.99 -99.99    8   50   10  67.6 -99.9 1020.1 -9.9 -9.999 -99.9 -99.99 -9.99
2019/05/22 03:30 EDT  -99.99 -99.99    7   52    9  67.6 -99.9 1020.1 -9.9 -9.999 -99.9 -99.99 -9.99
2019/05/22 03:36 EDT  -99.99 -99.99    8   48    9  67.6 -99.9 1020.1 -9.9 -9.999 -99.9 -99.99 -9.99
2019/05/22 03:42 EDT  -99.99 -99.99    8   45    9  67.8 -99.9 1020.0 -9.9 -9.999 -99.9 -99.99 -9.99
2019/05/22 03:48 EDT  -99.99 -99.99    8   53    9  67.8 -99.9 1020.0 -9.9 -9.999 -99.9 -99.99 -9.99
2019/05/22 03:54 EDT  -99.99 -99.99    9   47   10  67.8 -99.9 1020.1 -9.9 -9.999 -99.9 -99.99 -9.99
2019/05/22 04:00 EDT  -99.99 -99.99    9   37   11  67.8 -99.9 1020.2 -9.9 -9.999 -99.9 -99.99 -9.99
2019/05/22 04:06 EDT  -99.99 -99.99    8   41   10  67.8 -99.9 1020.2 -9.9 -9.999 -99.9 -99.99 -9.99
2019/05/22 04:12 EDT  -99.99 -99.99    9   33   11  67.8 -99.9 1020.2 -9.9 -9.999 -99.9 -99.99 -9.99
2019/05/22 04:18 EDT  -99.99 -99.99    9   36   10  67.8 -99.9 1020.4 -9.9 -9.999 -99.9 -99.99 -9.99
2019/05/22 04:24 EDT  -99.99 -99.99   10   33   11  68.0 -99.9 1020.4 -9.9 -9.999 -99.9 -99.99 -9.99
2019/05/22 04:30 EDT  -99.99 -99.99    9   38   11  68.0 -99.9 1020.4 -9.9 -9.999 -99.9 -99.99 -9.99
2019/05/22 04:36 EDT  -99.99 -99.99    9   36   11  68.0 -99.9 1020.5 -9.9 -9.999 -99.9 -99.99 -9.99
2019/05/22 04:42 EDT  -99.99 -99.99    7    2   10  67.3 -99.9 1020.5 -9.9 -9.999 -99.9 -99.99 -9.99
2019/05/22 04:48 EDT  -99.99 -99.99    8   10   10  67.5 -99.9 1020.5 -9.9 -9.999 -99.9 -99.99 -9.99
2019/05/22 04:54 EDT  -99.99 -99.99    8   17    9  67.5 -99.9 1020.4 -9.9 -9.999 -99.9 -99.99 -9.99
2019/05/22 05:00 EDT  -99.99 -99.99    7   22   10  67.5 -99.9 1020.5 -9.9 -9.999 -99.9 -99.99 -9.99
2019/05/22 05:06 EDT  -99.99 -99.99    6    1    9  66.9 -99.9 1020.5 -9.9 -9.999 -99.9 -99.99 -9.99
2019/05/22 05:12 EDT  -99.99 -99.99    6    5    8  66.9 -99.9 1020.6 -9.9 -9.999 -99.9 -99.99 -9.99
2019/05/22 05:18 EDT  -99.99 -99.99    7    3    8  67.1 -99.9 1020.6 -9.9 -9.999 -99.9 -99.99 -9.99
2019/05/22 05:24 EDT  -99.99 -99.99    6  357    9  66.4 -99.9 1020.7 -9.9 -9.999 -99.9 -99.99 -9.99
2019/05/22 05:30 EDT  -99.99 -99.99    7  355    8  66.0 -99.9 1020.9 -9.9 -9.999 -99.9 -99.99 -9.99
2019/05/22 05:36 EDT  -99.99 -99.99   15   49   17  66.7 -99.9 1021.1 -9.9 -9.999 -99.9 -99.99 -9.99
2019/05/22 05:42 EDT  -99.99 -99.99   16   52   19  66.2 -99.9 1021.1 -9.9 -9.999 -99.9 -99.99 -9.99
2019/05/22 05:48 EDT  -99.99 -99.99   16   53   18  66.0 -99.9 1021.1 -9.9 -9.999 -99.9 -99.99 -9.99
2019/05/22 05:54 EDT  -99.99 -99.99   16   60   19  65.8 -99.9 1021.1 -9.9 -9.999 -99.9 -99.99 -9.99
2019/05/22 06:00 EDT  -99.99 -99.99   16   52   19  65.7 -99.9 1021.2 -9.9 -9.999 -99.9 -99.99 -9.99
2019/05/22 06:06 EDT  -99.99 -99.99   15   59   19  65.8 -99.9 1021.3 -9.9 -9.999 -99.9 -99.99 -9.99
2019/05/22 06:12 EDT  -99.99 -99.99   16   62   19  65.8 -99.9 1021.3 -9.9 -9.999 -99.9 -99.99 -9.99
2019/05/22 06:18 EDT  -99.99 -99.99   18   60   20  65.8 -99.9 1021.3 -9.9 -9.999 -99.9 -99.99 -9.99
2019/05/22 06:24 EDT  -99.99 -99.99   16   71   20  66.0 -99.9 1021.2 -9.9 -9.999 -99.9 -99.99 -9.99
2019/05/22 06:30 EDT  -99.99 -99.99   17   67   20  65.8 -99.9 1021.2 -9.9 -9.999 -99.9 -99.99 -9.99
2019/05/22 06:36 EDT  -99.99 -99.99   19   73   21  65.7 -99.9 1021.3 -9.9 -9.999 -99.9 -99.99 -9.99
2019/05/22 06:42 EDT  -99.99 -99.99   19   66   21  65.5 -99.9 1021.5 -9.9 -9.999 -99.9 -99.99 -9.99
2019/05/22 06:48 EDT  -99.99 -99.99   18   65   20  65.3 -99.9 1021.6 -9.9 -9.999 -99.9 -99.99 -9.99
2019/05/22 06:54 EDT  -99.99 -99.99   18   76   20  65.5 -99.9 1021.7 -9.9 -9.999 -99.9 -99.99 -9.99
2019/05/22 07:00 EDT  -99.99 -99.99   17   64   20  65.5 -99.9 1021.8 -9.9 -9.999 -99.9 -99.99 -9.99
2019/05/22 07:06 EDT  -99.99 -99.99   16   70   19  65.7 -99.9 1021.8 -9.9 -9.999 -99.9 -99.99 -9.99
2019/05/22 07:12 EDT  -99.99 -99.99   17   66   20  65.5 -99.9 1022.0 -9.9 -9.999 -99.9 -99.99 -9.99
2019/05/22 07:18 EDT  -99.99 -99.99   17   65   20  65.5 -99.9 1022.0 -9.9 -9.999 -99.9 -99.99 -9.99
2019/05/22 07:24 EDT  -99.99 -99.99   17   68   20  65.3 -99.9 1022.1 -9.9 -9.999 -99.9 -99.99 -9.99
2019/05/22 07:30 EDT  -99.99 -99.99   17   70   19  65.5 -99.9 1022.2 -9.9 -9.999 -99.9 -99.99 -9.99
2019/05/22 07:36 EDT  -99.99 -99.99   16   74   18  65.7 -99.9 1022.3 -9.9 -9.999 -99.9 -99.99 -9.99
2019/05/22 07:42 EDT  -99.99 -99.99   16   73   19  65.3 -99.9 1022.3 -9.9 -9.999 -99.9 -99.99 -9.99
2019/05/22 07:48 EDT  -99.99 -99.99   14   69   17  65.5 -99.9 1022.5 -9.9 -9.999 -99.9 -99.99 -9.99
2019/05/22 07:54 EDT  -99.99 -99.99   15   62   18  65.1 -99.9 1022.6 -9.9 -9.999 -99.9 -99.99 -9.99
2019/05/22 08:00 EDT  -99.99 -99.99   16   58   18  65.1 -99.9 1022.5 -9.9 -9.999 -99.9 -99.99 -9.99
2019/05/22 08:06 EDT  -99.99 -99.99   14   65   17  65.3 -99.9 1022.7 -9.9 -9.999 -99.9 -99.99 -9.99
2019/05/22 08:12 EDT  -99.99 -99.99   15   57   17  64.9 -99.9 1022.7 -9.9 -9.999 -99.9 -99.99 -9.99
2019/05/22 08:18 EDT  -99.99 -99.99   14   73   17  65.1 -99.9 1022.6 -9.9 -9.999 -99.9 -99.99 -9.99
2019/05/22 08:24 EDT  -99.99 -99.99   13   57   16  65.1 -99.9 1023.0 -9.9 -9.999 -99.9 -99.99 -9.99
2019/05/22 08:30 EDT  -99.99 -99.99   13   68   16  65.1 -99.9 1022.9 -9.9 -9.999 -99.9 -99.99 -9.99
2019/05/22 08:36 EDT  -99.99 -99.99   12   57   15  64.9 -99.9 1023.2 -9.9 -9.999 -99.9 -99.99 -9.99
2019/05/22 08:42 EDT  -99.99 -99.99   14   60   17  65.3 -99.9 1023.3 -9.9 -9.999 -99.9 -99.99 -9.99
2019/05/22 08:48 EDT  -99.99 -99.99   13   67   16  65.1 -99.9 1023.3 -9.9 -9.999 -99.9 -99.99 -9.99
2019/05/22 08:54 EDT  -99.99 -99.99   13   58   15  65.1 -99.9 1023.5 -9.9 -9.999 -99.9 -99.99 -9.99
2019/05/22 09:00 EDT  -99.99 -99.99   12   63   15  64.9 -99.9 1023.5 -9.9 -9.999 -99.9 -99.99 -9.99
2019/05/22 09:06 EDT  -99.99 -99.99   11   72   13  65.3 -99.9 1023.6 -9.9 -9.999 -99.9 -99.99 -9.99
2019/05/22 09:12 EDT  -99.99 -99.99   11   79   13  65.1 -99.9 1023.7 -9.9 -9.999 -99.9 -99.99 -9.99
2019/05/22 09:18 EDT  -99.99 -99.99   11   72   13  65.3 -99.9 1023.6 -9.9 -9.999 -99.9 -99.99 -9.99
2019/05/22 09:24 EDT  -99.99 -99.99   11   74   13  65.3 -99.9 1023.6 -9.9 -9.999 -99.9 -99.99 -9.99
2019/05/22 09:30 EDT  -99.99 -99.99   11   71   14  65.3 -99.9 1023.6 -9.9 -9.999 -99.9 -99.99 -9.99
2019/05/22 09:36 EDT  -99.99 -99.99   11   85   12  65.1 -99.9 1023.6 -9.9 -9.999 -99.9 -99.99 -9.99
2019/05/22 09:42 EDT  -99.99 -99.99   12   60   14  64.8 -99.9 1023.6 -9.9 -9.999 -99.9 -99.99 -9.99
2019/05/22 09:48 EDT  -99.99 -99.99   11   73   13  65.3 -99.9 1023.6 -9.9 -9.999 -99.9 -99.99 -9.99
2019/05/22 09:54 EDT  -99.99 -99.99   12   79   14  65.1 -99.9 1023.5 -9.9 -9.999 -99.9 -99.99 -9.99
2019/05/22 10:00 EDT  -99.99 -99.99   13   79   14  64.9 -99.9 1023.5 -9.9 -9.999 -99.9 -99.99 -9.99
2019/05/22 10:06 EDT  -99.99 -99.99   13   85   15  64.9 -99.9 1023.6 -9.9 -9.999 -99.9 -99.99 -9.99
2019/05/22 10:12 EDT  -99.99 -99.99   12   82   15  64.9 -99.9 1023.7 -9.9 -9.999 -99.9 -99.99 -9.99
2019/05/22 10:18 EDT  -99.99 -99.99   12   84   15  64.9 -99.9 1023.7 -9.9 -9.999 -99.9 -99.99 -9.99
2019/05/22 10:24 EDT  -99.99 -99.99   12   80   14  65.1 -99.9 1023.8 -9.9 -9.999 -99.9 -99.99 -9.99
2019/05/22 10:30 EDT  -99.99 -99.99   12   75   15  65.1 -99.9 1024.0 -9.9 -9.999 -99.9 -99.99 -9.99
2019/05/22 10:36 EDT  -99.99 -99.99   12   79   14  65.1 -99.9 1024.1 -9.9 -9.999 -99.9 -99.99 -9.99
2019/05/22 10:42 EDT  -99.99 -99.99   11   84   14  64.8 -99.9 1024.1 -9.9 -9.999 -99.9 -99.99 -9.99
2019/05/22 10:48 EDT  -99.99 -99.99   12   85   14  64.9 -99.9 1024.2 -9.9 -9.999 -99.9 -99.99 -9.99
2019/05/22 10:54 EDT  -99.99 -99.99   12   82   14  64.6 -99.9 1024.2 -9.9 -9.999 -99.9 -99.99 -9.99
2019/05/22 11:00 EDT  -99.99 -99.99   10   77   14  64.9 -99.9 1024.3 -9.9 -9.999 -99.9 -99.99 -9.99
2019/05/22 11:06 EDT  -99.99 -99.99   11   82   13  64.8 -99.9 1024.3 -9.9 -9.999 -99.9 -99.99 -9.99
2019/05/22 11:12 EDT  -99.99 -99.99   11   83   13  64.8 -99.9 1024.2 -9.9 -9.999 -99.9 -99.99 -9.99
2019/05/22 11:18 EDT  -99.99 -99.99   11   90   13  64.6 -99.9 1024.3 -9.9 -9.999 -99.9 -99.99 -9.99
2019/05/22 11:24 EDT  -99.99 -99.99   11   88   13  64.6 -99.9 1024.5 -9.9 -9.999 -99.9 -99.99 -9.99
2019/05/22 11:30 EDT  -99.99 -99.99   13   90   15  64.4 -99.9 1024.4 -9.9 -9.999 -99.9 -99.99 -9.99
2019/05/22 11:36 EDT  -99.99 -99.99   11   87   13  64.8 -99.9 1024.4 -9.9 -9.999 -99.9 -99.99 -9.99
2019/05/22 11:42 EDT  -99.99 -99.99   11   89   13  64.8 -99.9 1024.5 -9.9 -9.999 -99.9 -99.99 -9.99
2019/05/22 11:48 EDT  -99.99 -99.99   13   86   15  64.6 -99.9 1024.5 -9.9 -9.999 -99.9 -99.99 -9.99
2019/05/22 11:54 EDT  -99.99 -99.99   12   83   13  64.4 -99.9 1024.4 -9.9 -9.999 -99.9 -99.99 -9.99
2019/05/22 12:00 EDT  -99.99 -99.99   11   83   13  64.6 -99.9 1024.5 -9.9 -9.999 -99.9 -99.99 -9.99
2019/05/22 12:06 EDT  -99.99 -99.99   10   78   14  64.6 -99.9 1024.4 -9.9 -9.999 -99.9 -99.99 -9.99
2019/05/22 12:12 EDT  -99.99 -99.99   11   78   14  64.4 -99.9 1024.4 -9.9 -9.999 -99.9 -99.99 -9.99
2019/05/22 12:18 EDT  -99.99 -99.99   11   79   13  64.6 -99.9 1024.4 -9.9 -9.999 -99.9 -99.99 -9.99
2019/05/22 12:24 EDT  -99.99 -99.99   12   86   14  64.4 -99.9 1024.5 -9.9 -9.999 -99.9 -99.99 -9.99
2019/05/22 12:30 EDT  -99.99 -99.99   12   92   13  64.4 -99.9 1024.5 -9.9 -9.999 -99.9 -99.99 -9.99
2019/05/22 12:36 EDT  -99.99 -99.99   10   74   14  64.4 -99.9 1024.5 -9.9 -9.999 -99.9 -99.99 -9.99
2019/05/22 12:42 EDT  -99.99 -99.99   11   90   13  64.4 -99.9 1024.5 -9.9 -9.999 -99.9 -99.99 -9.99
2019/05/22 12:48 EDT  -99.99 -99.99   10   75   14  64.6 -99.9 1024.5 -9.9 -9.999 -99.9 -99.99 -9.99
2019/05/22 12:54 EDT  -99.99 -99.99   11   81   13  64.6 -99.9 1024.6 -9.9 -9.999 -99.9 -99.99 -9.99
2019/05/22 13:00 EDT  -99.99 -99.99   11   81   13  64.2 -99.9 1024.5 -9.9 -9.999 -99.9 -99.99 -9.99
2019/05/22 13:06 EDT  -99.99 -99.99   11   92   13  64.4 -99.9 1024.5 -9.9 -9.999 -99.9 -99.99 -9.99
2019/05/22 13:12 EDT  -99.99 -99.99   10   91   12  64.6 -99.9 1024.5 -9.9 -9.999 -99.9 -99.99 -9.99
2019/05/22 13:18 EDT  -99.99 -99.99   10   80   12  64.4 -99.9 1024.6 -9.9 -9.999 -99.9 -99.99 -9.99
2019/05/22 13:24 EDT  -99.99 -99.99   10   85   13  64.4 -99.9 1024.5 -9.9 -9.999 -99.9 -99.99 -9.99
2019/05/22 13:30 EDT  -99.99 -99.99   10   95   13  64.4 -99.9 1024.6 -9.9 -9.999 -99.9 -99.99 -9.99
2019/05/22 13:36 EDT  -99.99 -99.99   10   91   13  64.4 -99.9 1024.5 -9.9 -9.999 -99.9 -99.99 -9.99
2019/05/22 13:42 EDT  -99.99 -99.99   10   79   13  64.4 -99.9 1024.7 -9.9 -9.999 -99.9 -99.99 -9.99
2019/05/22 13:48 EDT  -99.99 -99.99   11   75   12  64.6 -99.9 1024.6 -9.9 -9.999 -99.9 -99.99 -9.99
2019/05/22 13:54 EDT  -99.99 -99.99    9   78   12  64.6 -99.9 1024.8 -9.9 -9.999 -99.9 -99.99 -9.99
2019/05/22 14:00 EDT  -99.99 -99.99    9   81   11  64.8 -99.9 1024.8 -9.9 -9.999 -99.9 -99.99 -9.99
2019/05/22 14:06 EDT  -99.99 -99.99    9   72   12  64.8 -99.9 1024.7 -9.9 -9.999 -99.9 -99.99 -9.99
2019/05/22 14:12 EDT  -99.99 -99.99    9   81   11  64.9 -99.9 1024.6 -9.9 -9.999 -99.9 -99.99 -9.99
2019/05/22 14:18 EDT  -99.99 -99.99   10   88   11  64.8 -99.9 1024.4 -9.9 -9.999 -99.9 -99.99 -9.99
2019/05/22 14:24 EDT  -99.99 -99.99   10   88   11  64.8 -99.9 1024.4 -9.9 -9.999 -99.9 -99.99 -9.99
2019/05/22 14:30 EDT  -99.99 -99.99    9   82   12  64.9 -99.9 1024.3 -9.9 -9.999 -99.9 -99.99 -9.99
2019/05/22 14:36 EDT  -99.99 -99.99    9   93   11  64.9 -99.9 1024.3 -9.9 -9.999 -99.9 -99.99 -9.99
2019/05/22 14:42 EDT  -99.99 -99.99   10   92   12  64.8 -99.9 1024.3 -9.9 -9.999 -99.9 -99.99 -9.99
2019/05/22 14:48 EDT  -99.99 -99.99   10   82   12  64.9 -99.9 1024.4 -9.9 -9.999 -99.9 -99.99 -9.99
2019/05/22 14:54 EDT  -99.99 -99.99   10   84   12  65.1 -99.9 1024.4 -9.9 -9.999 -99.9 -99.99 -9.99
2019/05/22 15:00 EDT  -99.99 -99.99    9   76   12  65.3 -99.9 1024.5 -9.9 -9.999 -99.9 -99.99 -9.99
2019/05/22 15:06 EDT  -99.99 -99.99   10   76   12  64.9 -99.9 1024.4 -9.9 -9.999 -99.9 -99.99 -9.99
2019/05/22 15:12 EDT  -99.99 -99.99   10   80   12  64.9 -99.9 1024.4 -9.9 -9.999 -99.9 -99.99 -9.99
2019/05/22 15:18 EDT  -99.99 -99.99   10   81   12  65.1 -99.9 1024.4 -9.9 -9.999 -99.9 -99.99 -9.99
2019/05/22 15:24 EDT  -99.99 -99.99   10   81   12  65.1 -99.9 1024.4 -9.9 -9.999 -99.9 -99.99 -9.99
2019/05/22 15:30 EDT  -99.99 -99.99   10   89   12  64.9 -99.9 1024.3 -9.9 -9.999 -99.9 -99.99 -9.99
2019/05/22 15:36 EDT  -99.99 -99.99   11   86   13  64.9 -99.9 1024.2 -9.9 -9.999 -99.9 -99.99 -9.99
2019/05/22 15:42 EDT  -99.99 -99.99   11   81   13  65.1 -99.9 1024.1 -9.9 -9.999 -99.9 -99.99 -9.99
2019/05/22 15:48 EDT  -99.99 -99.99   11   81   12  64.9 -99.9 1024.2 -9.9 -9.999 -99.9 -99.99 -9.99
2019/05/22 15:54 EDT  -99.99 -99.99   10   76   12  65.3 -99.9 1024.2 -9.9 -9.999 -99.9 -99.99 -9.99
2019/05/22 16:00 EDT  -99.99 -99.99   11   79   13  65.3 -99.9 1024.2 -9.9 -9.999 -99.9 -99.99 -9.99
2019/05/22 16:06 EDT  -99.99 -99.99   11   71   13  65.7 -99.9 1024.3 -9.9 -9.999 -99.9 -99.99 -9.99
2019/05/22 16:12 EDT  -99.99 -99.99   11   72   13  65.7 -99.9 1024.4 -9.9 -9.999 -99.9 -99.99 -9.99
2019/05/22 16:18 EDT  -99.99 -99.99   11   76   13  65.5 -99.9 1024.4 -9.9 -9.999 -99.9 -99.99 -9.99
2019/05/22 16:24 EDT  -99.99 -99.99   11   77   13  65.5 -99.9 1024.3 -9.9 -9.999 -99.9 -99.99 -9.99
2019/05/22 16:30 EDT  -99.99 -99.99   11   93   13  65.3 -99.9 1024.2 -9.9 -9.999 -99.9 -99.99 -9.99
2019/05/22 16:36 EDT  -99.99 -99.99   11   83   13  65.5 -99.9 1024.2 -9.9 -9.999 -99.9 -99.99 -9.99
2019/05/22 16:42 EDT  -99.99 -99.99   11   90   13  65.3 -99.9 1024.2 -9.9 -9.999 -99.9 -99.99 -9.99
2019/05/22 16:48 EDT  -99.99 -99.99   10   84   13  65.7 -99.9 1024.2 -9.9 -9.999 -99.9 -99.99 -9.99
2019/05/22 16:54 EDT  -99.99 -99.99   10   92   12  65.5 -99.9 1024.2 -9.9 -9.999 -99.9 -99.99 -9.99
2019/05/22 17:00 EDT  -99.99 -99.99   12   93   13  65.5 -99.9 1024.1 -9.9 -9.999 -99.9 -99.99 -9.99
2019/05/22 17:06 EDT  -99.99 -99.99   11   89   13  65.7 -99.9 1024.1 -9.9 -9.999 -99.9 -99.99 -9.99
2019/05/22 17:12 EDT  -99.99 -99.99   11   89   13  65.7 -99.9 1024.1 -9.9 -9.999 -99.9 -99.99 -9.99
2019/05/22 17:18 EDT  -99.99 -99.99   12   88   13  65.8 -99.9 1024.2 -9.9 -9.999 -99.9 -99.99 -9.99
2019/05/22 17:24 EDT  -99.99 -99.99   11   84   13  65.8 -99.9 1024.1 -9.9 -9.999 -99.9 -99.99 -9.99
2019/05/22 17:30 EDT  -99.99 -99.99   11   81   12  66.0 -99.9 1024.1 -9.9 -9.999 -99.9 -99.99 -9.99
2019/05/22 17:36 EDT  -99.99 -99.99   11   91   13  66.0 -99.9 1024.0 -9.9 -9.999 -99.9 -99.99 -9.99
2019/05/22 17:42 EDT  -99.99 -99.99   11   88   13  65.8 -99.9 1024.0 -9.9 -9.999 -99.9 -99.99 -9.99
2019/05/22 17:48 EDT  -99.99 -99.99   11   91   13  66.0 -99.9 1024.0 -9.9 -9.999 -99.9 -99.99 -9.99
2019/05/22 17:54 EDT  -99.99 -99.99   11   96   13  66.0 -99.9 1024.0 -9.9 -9.999 -99.9 -99.99 -9.99
2019/05/22 18:00 EDT  -99.99 -99.99   12   91   13  65.8 -99.9 1023.8 -9.9 -9.999 -99.9 -99.99 -9.99
2019/05/22 18:06 EDT  -99.99 -99.99   11   92   13  65.8 -99.9 1023.9 -9.9 -9.999 -99.9 -99.99 -9.99
2019/05/22 18:12 EDT  -99.99 -99.99   11   94   13  65.8 -99.9 1024.0 -9.9 -9.999 -99.9 -99.99 -9.99
2019/05/22 18:18 EDT  -99.99 -99.99   11   94   12  66.0 -99.9 1023.9 -9.9 -9.999 -99.9 -99.99 -9.99
2019/05/22 18:24 EDT  -99.99 -99.99   11   91   13  66.2 -99.9 1023.8 -9.9 -9.999 -99.9 -99.99 -9.99
2019/05/22 18:30 EDT  -99.99 -99.99   12   93   13  66.2 -99.9 1023.8 -9.9 -9.999 -99.9 -99.99 -9.99
2019/05/22 18:36 EDT  -99.99 -99.99   12   93   14  66.2 -99.9 1023.8 -9.9 -9.999 -99.9 -99.99 -9.99
2019/05/22 18:42 EDT  -99.99 -99.99   12   93   14  66.2 -99.9 1023.7 -9.9 -9.999 -99.9 -99.99 -9.99
2019/05/22 18:48 EDT  -99.99 -99.99   13   93   15  66.4 -99.9 1023.8 -9.9 -9.999 -99.9 -99.99 -9.99
2019/05/22 18:54 EDT  -99.99 -99.99   12   91   13  66.4 -99.9 1023.8 -9.9 -9.999 -99.9 -99.99 -9.99
2019/05/22 19:00 EDT  -99.99 -99.99   12   93   13  66.4 -99.9 1023.9 -9.9 -9.999 -99.9 -99.99 -9.99
2019/05/22 19:06 EDT  -99.99 -99.99   11  102   13  66.6 -99.9 1023.8 -9.9 -9.999 -99.9 -99.99 -9.99
2019/05/22 19:12 EDT  -99.99 -99.99   11   98   13  66.6 -99.9 1023.7 -9.9 -9.999 -99.9 -99.99 -9.99
2019/05/22 19:18 EDT  -99.99 -99.99   11  108   13  66.6 -99.9 1023.6 -9.9 -9.999 -99.9 -99.99 -9.99
2019/05/22 19:24 EDT  -99.99 -99.99   11   99   12  66.6 -99.9 1023.7 -9.9 -9.999 -99.9 -99.99 -9.99
2019/05/22 19:30 EDT  -99.99 -99.99   11  103   12  66.7 -99.9 1023.7 -9.9 -9.999 -99.9 -99.99 -9.99
2019/05/22 19:36 EDT  -99.99 -99.99   11  100   12  66.7 -99.9 1023.8 -9.9 -9.999 -99.9 -99.99 -9.99
2019/05/22 19:42 EDT  -99.99 -99.99   11   98   13  66.7 -99.9 1023.7 -9.9 -9.999 -99.9 -99.99 -9.99
2019/05/22 19:48 EDT  -99.99 -99.99   11  101   13  66.7 -99.9 1023.7 -9.9 -9.999 -99.9 -99.99 -9.99
2019/05/22 19:54 EDT  -99.99 -99.99    9  115   11  67.1 -99.9 1023.8 -9.9 -9.999 -99.9 -99.99 -9.99
2019/05/22 20:00 EDT  -99.99 -99.99    9  116   10  66.9 -99.9 1023.8 -9.9 -9.999 -99.9 -99.99 -9.99
2019/05/22 20:06 EDT  -99.99 -99.99    8  122   10  66.7 -99.9 1023.8 -9.9 -9.999 -99.9 -99.99 -9.99
2019/05/22 20:12 EDT  -99.99 -99.99    8  115   10  66.7 -99.9 1023.9 -9.9 -9.999 -99.9 -99.99 -9.99
2019/05/22 20:18 EDT  -99.99 -99.99   10  116   10  66.6 -99.9 1023.7 -9.9 -9.999 -99.9 -99.99 -9.99
2019/05/22 20:24 EDT  -99.99 -99.99    9  121   11  66.6 -99.9 1023.7 -9.9 -9.999 -99.9 -99.99 -9.99
2019/05/22 20:30 EDT  -99.99 -99.99   11  122   13  66.4 -99.9 1023.7 -9.9 -9.999 -99.9 -99.99 -9.99
2019/05/22 20:36 EDT  -99.99 -99.99   11  120   13  66.2 -99.9 1023.6 -9.9 -9.999 -99.9 -99.99 -9.99
2019/05/22 20:42 EDT  -99.99 -99.99   11  125   13  66.0 -99.9 1023.7 -9.9 -9.999 -99.9 -99.99 -9.99
2019/05/22 20:48 EDT  -99.99 -99.99   11  128   13  65.8 -99.9 1023.8 -9.9 -9.999 -99.9 -99.99 -9.99
2019/05/22 20:54 EDT  -99.99 -99.99   11  131   13  65.7 -99.9 1023.7 -9.9 -9.999 -99.9 -99.99 -9.99
2019/05/22 21:00 EDT  -99.99 -99.99   11  128   13  65.7 -99.9 1023.8 -9.9 -9.999 -99.9 -99.99 -9.99
2019/05/22 21:06 EDT  -99.99 -99.99   11  130   14  65.7 -99.9 1023.6 -9.9 -9.999 -99.9 -99.99 -9.99
2019/05/22 21:12 EDT  -99.99 -99.99   12  132   13  65.5 -99.9 1023.6 -9.9 -9.999 -99.9 -99.99 -9.99
2019/05/22 21:18 EDT  -99.99 -99.99   11  128   13  65.5 -99.9 1023.8 -9.9 -9.999 -99.9 -99.99 -9.99
2019/05/22 21:24 EDT  -99.99 -99.99   10  134   12  65.5 -99.9 1024.0 -9.9 -9.999 -99.9 -99.99 -9.99
2019/05/22 21:30 EDT  -99.99 -99.99   11  132   13  65.1 -99.9 1024.0 -9.9 -9.999 -99.9 -99.99 -9.99
2019/05/22 21:36 EDT  -99.99 -99.99   11  137   13  65.3 -99.9 1024.1 -9.9 -9.999 -99.9 -99.99 -9.99
2019/05/22 21:42 EDT  -99.99 -99.99   10  136   13  65.1 -99.9 1024.2 -9.9 -9.999 -99.9 -99.99 -9.99
2019/05/22 21:48 EDT  -99.99 -99.99    9  146   12  65.1 -99.9 1024.3 -9.9 -9.999 -99.9 -99.99 -9.99
2019/05/22 21:54 EDT  -99.99 -99.99    8  144   10  65.1 -99.9 1024.5 -9.9 -9.999 -99.9 -99.99 -9.99
2019/05/22 22:00 EDT  -99.99 -99.99    7  143    9  64.9 -99.9 1024.5 -9.9 -9.999 -99.9 -99.99 -9.99
2019/05/22 22:06 EDT  -99.99 -99.99    8  148    9  64.9 -99.9 1024.6 -9.9 -9.999 -99.9 -99.99 -9.99
2019/05/22 22:12 EDT  -99.99 -99.99    7  141    8  65.1 -99.9 1024.6 -9.9 -9.999 -99.9 -99.99 -9.99
2019/05/22 22:18 EDT  -99.99 -99.99    8  144   10  65.1 -99.9 1024.6 -9.9 -9.999 -99.9 -99.99 -9.99
2019/05/22 22:24 EDT  -99.99 -99.99    9  139   10  64.9 -99.9 1024.7 -9.9 -9.999 -99.9 -99.99 -9.99
2019/05/22 22:30 EDT  -99.99 -99.99    8  148   10  65.1 -99.9 1024.7 -9.9 -9.999 -99.9 -99.99 -9.99
2019/05/22 22:36 EDT  -99.99 -99.99    9  138   11  65.1 -99.9 1024.9 -9.9 -9.999 -99.9 -99.99 -9.99
2019/05/22 22:42 EDT  -99.99 -99.99    8  151    9  64.9 -99.9 1024.8 -9.9 -9.999 -99.9 -99.99 -9.99
2019/05/22 22:48 EDT  -99.99 -99.99    8  146   10  64.9 -99.9 1024.8 -9.9 -9.999 -99.9 -99.99 -9.99
2019/05/22 22:54 EDT  -99.99 -99.99    7  148   10  64.9 -99.9 1024.8 -9.9 -9.999 -99.9 -99.99 -9.99
2019/05/22 23:00 EDT  -99.99 -99.99    6  135    7  64.8 -99.9 1024.8 -9.9 -9.999 -99.9 -99.99 -9.99
2019/05/22 23:06 EDT  -99.99 -99.99    6  143    8  64.8 -99.9 1024.8 -9.9 -9.999 -99.9 -99.99 -9.99
2019/05/22 23:12 EDT  -99.99 -99.99    6  133    7  64.8 -99.9 1024.9 -9.9 -9.999 -99.9 -99.99 -9.99
2019/05/22 23:18 EDT  -99.99 -99.99    6  128    8  64.9 -99.9 1024.8 -9.9 -9.999 -99.9 -99.99 -9.99
2019/05/22 23:24 EDT  -99.99 -99.99    6  129    7  65.1 -99.9 1024.8 -9.9 -9.999 -99.9 -99.99 -9.99
2019/05/22 23:30 EDT  -99.99 -99.99    7  115    9  64.9 -99.9 1024.8 -9.9 -9.999 -99.9 -99.99 -9.99
2019/05/22 23:36 EDT  -99.99 -99.99    7  123    8  64.8 -99.9 1024.8 -9.9 -9.999 -99.9 -99.99 -9.99
2019/05/22 23:42 EDT  -99.99 -99.99    6  125    8  64.9 -99.9 1024.8 -9.9 -9.999 -99.9 -99.99 -9.99
2019/05/22 23:48 EDT  -99.99 -99.99    7  134    9  64.8 -99.9 1024.8 -9.9 -9.999 -99.9 -99.99 -9.99
2019/05/22 23:54 EDT  -99.99 -99.99    6  136    8  64.9 -99.9 1024.7 -9.9 -9.999 -99.9 -99.99 -9.99
2019/05/23 00:00 EDT  -99.99 -99.99    6  131    8  64.9 -99.9 1024.6 -9.9 -9.999 -99.9 -99.99 -9.99
2019/05/23 00:06 EDT  -99.99 -99.99    6  134    7  64.9 -99.9 1024.5 -9.9 -9.999 -99.9 -99.99 -9.99
2019/05/23 00:12 EDT  -99.99 -99.99    6  136    9  64.9 -99.9 1024.4 -9.9 -9.999 -99.9 -99.99 -9.99
2019/05/23 00:18 EDT  -99.99 -99.99    7  145    9  64.9 -99.9 1024.4 -9.9 -9.999 -99.9 -99.99 -9.99
2019/05/23 00:24 EDT  -99.99 -99.99    7  148    8  64.8 -99.9 1024.3 -9.9 -9.999 -99.9 -99.99 -9.99
2019/05/23 00:30 EDT  -99.99 -99.99    8  144    9  64.6 -99.9 1024.2 -9.9 -9.999 -99.9 -99.99 -9.99
2019/05/23 00:36 EDT  -99.99 -99.99    8  147    9  64.6 -99.9 1024.2 -9.9 -9.999 -99.9 -99.99 -9.99
2019/05/23 00:42 EDT  -99.99 -99.99    7  147    9  64.8 -99.9 1024.2 -9.9 -9.999 -99.9 -99.99 -9.99
2019/05/23 00:48 EDT  -99.99 -99.99    8  141    9  64.6 -99.9 1024.2 -9.9 -9.999 -99.9 -99.99 -9.99
2019/05/23 00:54 EDT  -99.99 -99.99    8  142    9  64.6 -99.9 1024.2 -9.9 -9.999 -99.9 -99.99 -9.99
2019/05/23 01:00 EDT  -99.99 -99.99    7  142    8  64.6 -99.9 1024.2 -9.9 -9.999 -99.9 -99.99 -9.99
2019/05/23 01:06 EDT  -99.99 -99.99    8  140    9  64.6 -99.9 1024.1 -9.9 -9.999 -99.9 -99.99 -9.99
2019/05/23 01:12 EDT  -99.99 -99.99    7  146    9  64.4 -99.9 1024.1 -9.9 -9.999 -99.9 -99.99 -9.99
2019/05/23 01:18 EDT  -99.99 -99.99    7  150    9  64.4 -99.9 1024.1 -9.9 -9.999 -99.9 -99.99 -9.99
2019/05/23 01:24 EDT  -99.99 -99.99    7  145    9  64.2 -99.9 1024.1 -9.9 -9.999 -99.9 -99.99 -9.99
2019/05/23 01:30 EDT  -99.99 -99.99    6  143    8  64.2 -99.9 1024.2 -9.9 -9.999 -99.9 -99.99 -9.99
2019/05/23 01:36 EDT  -99.99 -99.99    8  145    9  64.2 -99.9 1024.1 -9.9 -9.999 -99.9 -99.99 -9.99
2019/05/23 01:42 EDT  -99.99 -99.99    8  150    9  64.2 -99.9 1024.0 -9.9 -9.999 -99.9 -99.99 -9.99
2019/05/23 01:48 EDT  -99.99 -99.99    9  144   10  64.0 -99.9 1023.9 -9.9 -9.999 -99.9 -99.99 -9.99
2019/05/23 01:54 EDT  -99.99 -99.99    8  147   10  64.2 -99.9 1023.8 -9.9 -9.999 -99.9 -99.99 -9.99
2019/05/23 02:00 EDT  -99.99 -99.99    9  147   10  64.0 -99.9 1023.7 -9.9 -9.999 -99.9 -99.99 -9.99
2019/05/23 02:06 EDT  -99.99 -99.99    9  147   11  64.0 -99.9 1023.6 -9.9 -9.999 -99.9 -99.99 -9.99
2019/05/23 02:12 EDT  -99.99 -99.99    8  148   11  64.2 -99.9 1023.5 -9.9 -9.999 -99.9 -99.99 -9.99
2019/05/23 02:18 EDT  -99.99 -99.99    9  152   11  64.4 -99.9 1023.6 -9.9 -9.999 -99.9 -99.99 -9.99
2019/05/23 02:24 EDT  -99.99 -99.99    9  153   11  64.4 -99.9 1023.6 -9.9 -9.999 -99.9 -99.99 -9.99
2019/05/23 02:30 EDT  -99.99 -99.99    8  154   10  64.2 -99.9 1023.6 -9.9 -9.999 -99.9 -99.99 -9.99
2019/05/23 02:36 EDT  -99.99 -99.99    9  163   11  64.4 -99.9 1023.6 -9.9 -9.999 -99.9 -99.99 -9.99
2019/05/23 02:42 EDT  -99.99 -99.99    8  161   10  64.4 -99.9 1023.6 -9.9 -9.999 -99.9 -99.99 -9.99
2019/05/23 02:48 EDT  -99.99 -99.99    8  174    9  64.2 -99.9 1023.6 -9.9 -9.999 -99.9 -99.99 -9.99
2019/05/23 02:54 EDT  -99.99 -99.99    7  174    9  64.2 -99.9 1023.6 -9.9 -9.999 -99.9 -99.99 -9.99
2019/05/23 03:00 EDT  -99.99 -99.99    7  180   10  64.2 -99.9 1023.5 -9.9 -9.999 -99.9 -99.99 -9.99
2019/05/23 03:06 EDT  -99.99 -99.99    6  173    9  64.0 -99.9 1023.6 -9.9 -9.999 -99.9 -99.99 -9.99
2019/05/23 03:12 EDT  -99.99 -99.99    7  178    8  64.2 -99.9 1023.5 -9.9 -9.999 -99.9 -99.99 -9.99
2019/05/23 03:18 EDT  -99.99 -99.99    7  177    9  64.2 -99.9 1023.4 -9.9 -9.999 -99.9 -99.99 -9.99
2019/05/23 03:24 EDT  -99.99 -99.99    8  181   10  64.2 -99.9 1023.3 -9.9 -9.999 -99.9 -99.99 -9.99
2019/05/23 03:30 EDT  -99.99 -99.99    9  179    9  64.2 -99.9 1023.3 -9.9 -9.999 -99.9 -99.99 -9.99
2019/05/23 03:36 EDT  -99.99 -99.99    8  177   10  64.4 -99.9 1023.3 -9.9 -9.999 -99.9 -99.99 -9.99
2019/05/23 03:42 EDT  -99.99 -99.99    8  178   10  64.6 -99.9 1023.2 -9.9 -9.999 -99.9 -99.99 -9.99
2019/05/23 03:48 EDT  -99.99 -99.99    8  173   10  64.6 -99.9 1023.3 -9.9 -9.999 -99.9 -99.99 -9.99
2019/05/23 03:54 EDT  -99.99 -99.99    9  174   10  64.6 -99.9 1023.3 -9.9 -9.999 -99.9 -99.99 -9.99
2019/05/23 04:00 EDT  -99.99 -99.99    9  162   10  64.4 -99.9 1023.2 -9.9 -9.999 -99.9 -99.99 -9.99
2019/05/23 04:06 EDT  -99.99 -99.99    8  164   10  64.4 -99.9 1023.1 -9.9 -9.999 -99.9 -99.99 -9.99
2019/05/23 04:12 EDT  -99.99 -99.99    9  162    9  64.6 -99.9 1023.2 -9.9 -9.999 -99.9 -99.99 -9.99
2019/05/23 04:18 EDT  -99.99 -99.99    8  165   10  64.6 -99.9 1023.2 -9.9 -9.999 -99.9 -99.99 -9.99
2019/05/23 04:24 EDT  -99.99 -99.99    9  164   10  64.4 -99.9 1023.3 -9.9 -9.999 -99.9 -99.99 -9.99
2019/05/23 04:30 EDT  -99.99 -99.99    7  175    9  64.4 -99.9 1023.3 -9.9 -9.999 -99.9 -99.99 -9.99
2019/05/23 04:36 EDT  -99.99 -99.99    7  172    9  64.2 -99.9 1023.4 -9.9 -9.999 -99.9 -99.99 -9.99
2019/05/23 04:42 EDT  -99.99 -99.99    7  167    9  64.2 -99.9 1023.3 -9.9 -9.999 -99.9 -99.99 -9.99
2019/05/23 04:48 EDT  -99.99 -99.99    7  167    8  64.4 -99.9 1023.4 -9.9 -9.999 -99.9 -99.99 -9.99
2019/05/23 04:54 EDT  -99.99 -99.99    8  165    9  64.4 -99.9 1023.4 -9.9 -9.999 -99.9 -99.99 -9.99
2019/05/23 05:00 EDT  -99.99 -99.99    6  169    8  64.6 -99.9 1023.4 -9.9 -9.999 -99.9 -99.99 -9.99
2019/05/23 05:06 EDT  -99.99 -99.99    7  165    8  64.8 -99.9 1023.5 -9.9 -9.999 -99.9 -99.99 -9.99
2019/05/23 05:12 EDT  -99.99 -99.99    8  159   10  64.8 -99.9 1023.4 -9.9 -9.999 -99.9 -99.99 -9.99
2019/05/23 05:18 EDT  -99.99 -99.99   10  156   11  64.9 -99.9 1023.3 -9.9 -9.999 -99.9 -99.99 -9.99
2019/05/23 05:24 EDT  -99.99 -99.99    9  158   11  65.1 -99.9 1023.4 -9.9 -9.999 -99.9 -99.99 -9.99
2019/05/23 05:30 EDT  -99.99 -99.99    9  161   11  65.3 -99.9 1023.4 -9.9 -9.999 -99.9 -99.99 -9.99
2019/05/23 05:36 EDT  -99.99 -99.99   10  164   12  65.3 -99.9 1023.4 -9.9 -9.999 -99.9 -99.99 -9.99
2019/05/23 05:42 EDT  -99.99 -99.99   11  168   12  65.3 -99.9 1023.4 -9.9 -9.999 -99.9 -99.99 -9.99
2019/05/23 05:48 EDT  -99.99 -99.99   11  165   12  65.1 -99.9 1023.5 -9.9 -9.999 -99.9 -99.99 -9.99
2019/05/23 05:54 EDT  -99.99 -99.99   10  166   12  65.1 -99.9 1023.4 -9.9 -9.999 -99.9 -99.99 -9.99
2019/05/23 06:00 EDT  -99.99 -99.99   10  164   13  65.1 -99.9 1023.3 -9.9 -9.999 -99.9 -99.99 -9.99
2019/05/23 06:06 EDT  -99.99 -99.99   11  165   12  65.3 -99.9 1023.4 -9.9 -9.999 -99.9 -99.99 -9.99
2019/05/23 06:12 EDT  -99.99 -99.99   10  167   13  65.5 -99.9 1023.4 -9.9 -9.999 -99.9 -99.99 -9.99
2019/05/23 06:18 EDT  -99.99 -99.99   10  174   12  65.3 -99.9 1023.5 -9.9 -9.999 -99.9 -99.99 -9.99
2019/05/23 06:24 EDT  -99.99 -99.99   11  175   13  65.3 -99.9 1023.5 -9.9 -9.999 -99.9 -99.99 -9.99
2019/05/23 06:30 EDT  -99.99 -99.99    9  176   12  65.5 -99.9 1023.5 -9.9 -9.999 -99.9 -99.99 -9.99
2019/05/23 06:36 EDT  -99.99 -99.99    9  178   10  65.3 -99.9 1023.7 -9.9 -9.999 -99.9 -99.99 -9.99
2019/05/23 06:42 EDT  -99.99 -99.99    8  180    9  65.7 -99.9 1023.7 -9.9 -9.999 -99.9 -99.99 -9.99
2019/05/23 06:48 EDT  -99.99 -99.99    8  177   10  65.7 -99.9 1023.6 -9.9 -9.999 -99.9 -99.99 -9.99
2019/05/23 06:54 EDT  -99.99 -99.99    9  178   10  65.8 -99.9 1023.6 -9.9 -9.999 -99.9 -99.99 -9.99
2019/05/23 07:00 EDT  -99.99 -99.99   10  172   11  65.8 -99.9 1023.6 -9.9 -9.999 -99.9 -99.99 -9.99
2019/05/23 07:06 EDT  -99.99 -99.99    9  178   10  66.0 -99.9 1023.6 -9.9 -9.999 -99.9 -99.99 -9.99
2019/05/23 07:12 EDT  -99.99 -99.99   10  175   11  66.4 -99.9 1023.6 -9.9 -9.999 -99.9 -99.99 -9.99
2019/05/23 07:18 EDT  -99.99 -99.99   10  179   12  66.4 -99.9 1023.6 -9.9 -9.999 -99.9 -99.99 -9.99
2019/05/23 07:24 EDT  -99.99 -99.99   11  184   15  66.6 -99.9 1023.5 -9.9 -9.999 -99.9 -99.99 -9.99
2019/05/23 07:30 EDT  -99.99 -99.99   12  185   15  66.9 -99.9 1023.6 -9.9 -9.999 -99.9 -99.99 -9.99
2019/05/23 07:36 EDT  -99.99 -99.99   13  184   16  66.9 -99.9 1023.7 -9.9 -9.999 -99.9 -99.99 -9.99
2019/05/23 07:42 EDT  -99.99 -99.99   13  186   15  66.9 -99.9 1023.6 -9.9 -9.999 -99.9 -99.99 -9.99
2019/05/23 07:48 EDT  -99.99 -99.99   13  182   16  67.1 -99.9 1023.4 -9.9 -9.999 -99.9 -99.99 -9.99
2019/05/23 07:54 EDT  -99.99 -99.99   14  183   17  67.1 -99.9 1023.3 -9.9 -9.999 -99.9 -99.99 -9.99
2019/05/23 08:00 EDT  -99.99 -99.99   15  184   17  67.3 -99.9 1023.2 -9.9 -9.999 -99.9 -99.99 -9.99
2019/05/23 08:06 EDT  -99.99 -99.99   15  182   17  67.5 -99.9 1023.2 -9.9 -9.999 -99.9 -99.99 -9.99
2019/05/23 08:12 EDT  -99.99 -99.99   14  182   18  67.6 -99.9 1023.2 -9.9 -9.999 -99.9 -99.99 -9.99
2019/05/23 08:18 EDT  -99.99 -99.99   12  184   16  68.0 -99.9 1023.3 -9.9 -9.999 -99.9 -99.99 -9.99
2019/05/23 08:24 EDT  -99.99 -99.99   15  189   17  68.4 -99.9 1023.3 -9.9 -9.999 -99.9 -99.99 -9.99
2019/05/23 08:30 EDT  -99.99 -99.99   14  190   17  68.4 -99.9 1023.3 -9.9 -9.999 -99.9 -99.99 -9.99
2019/05/23 08:36 EDT  -99.99 -99.99   15  197   19  68.5 -99.9 1023.4 -9.9 -9.999 -99.9 -99.99 -9.99
2019/05/23 08:42 EDT  -99.99 -99.99   15  190   18  68.9 -99.9 1023.5 -9.9 -9.999 -99.9 -99.99 -9.99
2019/05/23 08:48 EDT  -99.99 -99.99   14  198   17  69.3 -99.9 1023.5 -9.9 -9.999 -99.9 -99.99 -9.99
2019/05/23 08:54 EDT  -99.99 -99.99   16  199   19  69.4 -99.9 1023.5 -9.9 -9.999 -99.9 -99.99 -9.99
2019/05/23 09:00 EDT  -99.99 -99.99   16  201   19  69.4 -99.9 1023.4 -9.9 -9.999 -99.9 -99.99 -9.99
2019/05/23 09:06 EDT  -99.99 -99.99   15  197   17  69.8 -99.9 1023.5 -9.9 -9.999 -99.9 -99.99 -9.99
2019/05/23 09:12 EDT  -99.99 -99.99   13  199   16  70.2 -99.9 1023.5 -9.9 -9.999 -99.9 -99.99 -9.99
2019/05/23 09:18 EDT  -99.99 -99.99   14  195   17  70.2 -99.9 1023.4 -9.9 -9.999 -99.9 -99.99 -9.99
2019/05/23 09:24 EDT  -99.99 -99.99   14  205   16  70.5 -99.9 1023.4 -9.9 -9.999 -99.9 -99.99 -9.99
2019/05/23 09:30 EDT  -99.99 -99.99   12  212   14  70.7 -99.9 1023.4 -9.9 -9.999 -99.9 -99.99 -9.99
2019/05/23 09:36 EDT  -99.99 -99.99   13  209   15  70.7 -99.9 1023.3 -9.9 -9.999 -99.9 -99.99 -9.99
2019/05/23 09:42 EDT  -99.99 -99.99   11  210   14  71.1 -99.9 1023.3 -9.9 -9.999 -99.9 -99.99 -9.99
2019/05/23 09:48 EDT  -99.99 -99.99   10  207   14  71.2 -99.9 1023.4 -9.9 -9.999 -99.9 -99.99 -9.99
2019/05/23 09:54 EDT  -99.99 -99.99    9  211   11  71.4 -99.9 1023.3 -9.9 -9.999 -99.9 -99.99 -9.99
2019/05/23 10:00 EDT  -99.99 -99.99    8  204   11  72.0 -99.9 1023.1 -9.9 -9.999 -99.9 -99.99 -9.99
2019/05/23 10:06 EDT  -99.99 -99.99   10  213   11  72.3 -99.9 1023.0 -9.9 -9.999 -99.9 -99.99 -9.99
2019/05/23 10:12 EDT  -99.99 -99.99   13  224   15  72.3 -99.9 1022.9 -9.9 -9.999 -99.9 -99.99 -9.99
2019/05/23 10:18 EDT  -99.99 -99.99   12  226   16  72.3 -99.9 1022.9 -9.9 -9.999 -99.9 -99.99 -9.99
2019/05/23 10:24 EDT  -99.99 -99.99   14  228   16  72.5 -99.9 1022.9 -9.9 -9.999 -99.9 -99.99 -9.99
2019/05/23 10:30 EDT  -99.99 -99.99   13  226   16  72.7 -99.9 1022.9 -9.9 -9.999 -99.9 -99.99 -9.99
2019/05/23 10:36 EDT  -99.99 -99.99   12  220   15  73.0 -99.9 1022.8 -9.9 -9.999 -99.9 -99.99 -9.99
2019/05/23 10:42 EDT  -99.99 -99.99   12  220   14  73.2 -99.9 1022.7 -9.9 -9.999 -99.9 -99.99 -9.99
2019/05/23 10:48 EDT  -99.99 -99.99   13  219   15  73.8 -99.9 1022.6 -9.9 -9.999 -99.9 -99.99 -9.99
2019/05/23 10:54 EDT  -99.99 -99.99   13  215   15  74.1 -99.9 1022.6 -9.9 -9.999 -99.9 -99.99 -9.99
2019/05/23 11:00 EDT  -99.99 -99.99   11  219   14  74.1 -99.9 1022.5 -9.9 -9.999 -99.9 -99.99 -9.99
2019/05/23 11:06 EDT  -99.99 -99.99   13  222   15  74.3 -99.9 1022.4 -9.9 -9.999 -99.9 -99.99 -9.99
2019/05/23 11:12 EDT  -99.99 -99.99   12  223   16  74.5 -99.9 1022.4 -9.9 -9.999 -99.9 -99.99 -9.99
2019/05/23 11:18 EDT  -99.99 -99.99   14  231   16  74.5 -99.9 1022.4 -9.9 -9.999 -99.9 -99.99 -9.99
2019/05/23 11:24 EDT  -99.99 -99.99   12  227   16  74.8 -99.9 1022.4 -9.9 -9.999 -99.9 -99.99 -9.99
2019/05/23 11:30 EDT  -99.99 -99.99   15  232   17  74.8 -99.9 1022.3 -9.9 -9.999 -99.9 -99.99 -9.99
2019/05/23 11:36 EDT  -99.99 -99.99   14  237   17  74.7 -99.9 1022.3 -9.9 -9.999 -99.9 -99.99 -9.99
2019/05/23 11:42 EDT  -99.99 -99.99   11  233   15  74.5 -99.9 1022.4 -9.9 -9.999 -99.9 -99.99 -9.99
2019/05/23 11:48 EDT  -99.99 -99.99   13  236   16  74.7 -99.9 1022.2 -9.9 -9.999 -99.9 -99.99 -9.99
2019/05/23 11:54 EDT  -99.99 -99.99   14  235   15  75.0 -99.9 1022.1 -9.9 -9.999 -99.9 -99.99 -9.99
2019/05/23 12:00 EDT  -99.99 -99.99   14  233   19  75.0 -99.9 1022.0 -9.9 -9.999 -99.9 -99.99 -9.99
2019/05/23 12:06 EDT  -99.99 -99.99   14  233   16  75.2 -99.9 1021.9 -9.9 -9.999 -99.9 -99.99 -9.99
2019/05/23 12:12 EDT  -99.99 -99.99   15  235   17  75.6 -99.9 1021.8 -9.9 -9.999 -99.9 -99.99 -9.99
2019/05/23 12:18 EDT  -99.99 -99.99   16  236   18  75.4 -99.9 1021.7 -9.9 -9.999 -99.9 -99.99 -9.99
2019/05/23 12:24 EDT  -99.99 -99.99   15  234   17  75.4 -99.9 1021.6 -9.9 -9.999 -99.9 -99.99 -9.99
2019/05/23 12:30 EDT  -99.99 -99.99   14  237   17  75.7 -99.9 1021.5 -9.9 -9.999 -99.9 -99.99 -9.99
2019/05/23 12:36 EDT  -99.99 -99.99   15  233   17  75.9 -99.9 1021.3 -9.9 -9.999 -99.9 -99.99 -9.99
2019/05/23 12:42 EDT  -99.99 -99.99   15  233   18  76.5 -99.9 1021.2 -9.9 -9.999 -99.9 -99.99 -9.99
2019/05/23 12:48 EDT  -99.99 -99.99   17  227   20  76.6 -99.9 1021.0 -9.9 -9.999 -99.9 -99.99 -9.99
2019/05/23 12:54 EDT  -99.99 -99.99   16  232   18  76.5 -99.9 1020.8 -9.9 -9.999 -99.9 -99.99 -9.99
2019/05/23 13:00 EDT  -99.99 -99.99   15  227   17  76.8 -99.9 1020.7 -9.9 -9.999 -99.9 -99.99 -9.99
2019/05/23 13:06 EDT  -99.99 -99.99   14  227   15  76.8 -99.9 1020.5 -9.9 -9.999 -99.9 -99.99 -9.99
2019/05/23 13:12 EDT  -99.99 -99.99   16  224   19  77.4 -99.9 1020.4 -9.9 -9.999 -99.9 -99.99 -9.99
2019/05/23 13:18 EDT  -99.99 -99.99   14  227   16  77.0 -99.9 1020.3 -9.9 -9.999 -99.9 -99.99 -9.99
2019/05/23 13:24 EDT  -99.99 -99.99   14  235   16  77.0 -99.9 1020.2 -9.9 -9.999 -99.9 -99.99 -9.99
2019/05/23 13:30 EDT  -99.99 -99.99   13  233   14  77.0 -99.9 1020.1 -9.9 -9.999 -99.9 -99.99 -9.99
2019/05/23 13:36 EDT  -99.99 -99.99   14  233   16  77.2 -99.9 1019.9 -9.9 -9.999 -99.9 -99.99 -9.99
2019/05/23 13:42 EDT  -99.99 -99.99   15  227   16  77.7 -99.9 1019.8 -9.9 -9.999 -99.9 -99.99 -9.99
2019/05/23 13:48 EDT  -99.99 -99.99   15  230   18  77.9 -99.9 1019.7 -9.9 -9.999 -99.9 -99.99 -9.99
2019/05/23 13:54 EDT  -99.99 -99.99   18  235   19  78.1 -99.9 1019.5 -9.9 -9.999 -99.9 -99.99 -9.99
2019/05/23 14:00 EDT  -99.99 -99.99   15  232   20  77.9 -99.9 1019.5 -9.9 -9.999 -99.9 -99.99 -9.99
2019/05/23 14:06 EDT  -99.99 -99.99   18  228   21  78.8 -99.9 1019.4 -9.9 -9.999 -99.9 -99.99 -9.99
2019/05/23 14:12 EDT  -99.99 -99.99   16  227   17  78.4 -99.9 1019.3 -9.9 -9.999 -99.9 -99.99 -9.99
2019/05/23 14:18 EDT  -99.99 -99.99   14  228   17  78.1 -99.9 1019.3 -9.9 -9.999 -99.9 -99.99 -9.99
2019/05/23 14:24 EDT  -99.99 -99.99   18  227   19  78.8 -99.9 1019.1 -9.9 -9.999 -99.9 -99.99 -9.99
2019/05/23 14:30 EDT  -99.99 -99.99   17  231   19  79.2 -99.9 1019.1 -9.9 -9.999 -99.9 -99.99 -9.99
2019/05/23 14:36 EDT  -99.99 -99.99   19  233   21  79.2 -99.9 1019.0 -9.9 -9.999 -99.9 -99.99 -9.99
2019/05/23 14:42 EDT  -99.99 -99.99   16  236   19  78.8 -99.9 1019.1 -9.9 -9.999 -99.9 -99.99 -9.99
2019/05/23 14:48 EDT  -99.99 -99.99   16  234   20  79.2 -99.9 1019.0 -9.9 -9.999 -99.9 -99.99 -9.99
2019/05/23 14:54 EDT  -99.99 -99.99   16  230   21  79.2 -99.9 1019.0 -9.9 -9.999 -99.9 -99.99 -9.99
2019/05/23 15:00 EDT  -99.99 -99.99   17  231   19  79.9 -99.9 1018.9 -9.9 -9.999 -99.9 -99.99 -9.99
2019/05/23 15:06 EDT  -99.99 -99.99   15  228   19  79.5 -99.9 1019.0 -9.9 -9.999 -99.9 -99.99 -9.99
2019/05/23 15:12 EDT  -99.99 -99.99   15  233   17  79.2 -99.9 1019.0 -9.9 -9.999 -99.9 -99.99 -9.99
2019/05/23 15:18 EDT  -99.99 -99.99   17  234   18  79.7 -99.9 1018.8 -9.9 -9.999 -99.9 -99.99 -9.99
2019/05/23 15:24 EDT  -99.99 -99.99   16  234   18  79.5 -99.9 1018.7 -9.9 -9.999 -99.9 -99.99 -9.99
2019/05/23 15:30 EDT  -99.99 -99.99   17  232   19  78.8 -99.9 1018.8 -9.9 -9.999 -99.9 -99.99 -9.99
2019/05/23 15:36 EDT  -99.99 -99.99   16  233   18  79.0 -99.9 1018.6 -9.9 -9.999 -99.9 -99.99 -9.99
2019/05/23 15:42 EDT  -99.99 -99.99   17  234   19  79.0 -99.9 1018.4 -9.9 -9.999 -99.9 -99.99 -9.99
2019/05/23 15:48 EDT  -99.99 -99.99   18  244   21  78.6 -99.9 1018.2 -9.9 -9.999 -99.9 -99.99 -9.99
2019/05/23 15:54 EDT  -99.99 -99.99   19  247   21  78.3 -99.9 1018.0 -9.9 -9.999 -99.9 -99.99 -9.99
2019/05/23 16:00 EDT  -99.99 -99.99   17  243   19  79.0 -99.9 1017.8 -9.9 -9.999 -99.9 -99.99 -9.99
2019/05/23 16:06 EDT  -99.99 -99.99   17  236   20  77.9 -99.9 1018.0 -9.9 -9.999 -99.9 -99.99 -9.99
2019/05/23 16:12 EDT  -99.99 -99.99   21  226   22  78.3 -99.9 1017.9 -9.9 -9.999 -99.9 -99.99 -9.99
2019/05/23 16:18 EDT  -99.99 -99.99   20  223   24  78.1 -99.9 1017.7 -9.9 -9.999 -99.9 -99.99 -9.99
2019/05/23 16:24 EDT  -99.99 -99.99   18  225   21  77.9 -99.9 1017.5 -9.9 -9.999 -99.9 -99.99 -9.99
2019/05/23 16:30 EDT  -99.99 -99.99   20  217   22  78.6 -99.9 1017.3 -9.9 -9.999 -99.9 -99.99 -9.99
2019/05/23 16:36 EDT  -99.99 -99.99   20  224   22  78.1 -99.9 1017.0 -9.9 -9.999 -99.9 -99.99 -9.99
2019/05/23 16:42 EDT  -99.99 -99.99   20  216   23  78.4 -99.9 1016.9 -9.9 -9.999 -99.9 -99.99 -9.99
2019/05/23 16:48 EDT  -99.99 -99.99   21  211   23  79.2 -99.9 1016.7 -9.9 -9.999 -99.9 -99.99 -9.99
2019/05/23 16:54 EDT  -99.99 -99.99   20  218   22  79.0 -99.9 1016.6 -9.9 -9.999 -99.9 -99.99 -9.99
2019/05/23 17:00 EDT  -99.99 -99.99   20  214   22  79.5 -99.9 1016.6 -9.9 -9.999 -99.9 -99.99 -9.99
2019/05/23 17:06 EDT  -99.99 -99.99   17  215   22  79.5 -99.9 1016.7 -9.9 -9.999 -99.9 -99.99 -9.99
2019/05/23 17:12 EDT  -99.99 -99.99   19  216   23  79.9 -99.9 1016.7 -9.9 -9.999 -99.9 -99.99 -9.99
2019/05/23 17:18 EDT  -99.99 -99.99   19  222   22  79.3 -99.9 1016.7 -9.9 -9.999 -99.9 -99.99 -9.99
2019/05/23 17:24 EDT  -99.99 -99.99   18  224   21  79.2 -99.9 1016.8 -9.9 -9.999 -99.9 -99.99 -9.99
2019/05/23 17:30 EDT  -99.99 -99.99   19  219   21  79.5 -99.9 1016.7 -9.9 -9.999 -99.9 -99.99 -9.99
2019/05/23 17:36 EDT  -99.99 -99.99   19  223   21  79.0 -99.9 1016.7 -9.9 -9.999 -99.9 -99.99 -9.99
2019/05/23 17:42 EDT  -99.99 -99.99   17  232   19  78.8 -99.9 1016.7 -9.9 -9.999 -99.9 -99.99 -9.99
2019/05/23 17:48 EDT  -99.99 -99.99   13  237   17  78.3 -99.9 1016.7 -9.9 -9.999 -99.9 -99.99 -9.99
2019/05/23 17:54 EDT  -99.99 -99.99   12  243   14  78.1 -99.9 1016.7 -9.9 -9.999 -99.9 -99.99 -9.99
2019/05/23 18:00 EDT  -99.99 -99.99   12  238   13  78.3 -99.9 1016.6 -9.9 -9.999 -99.9 -99.99 -9.99
2019/05/23 18:06 EDT  -99.99 -99.99   13  239   14  78.1 -99.9 1016.5 -9.9 -9.999 -99.9 -99.99 -9.99
2019/05/23 18:12 EDT  -99.99 -99.99   14  239   16  78.3 -99.9 1016.4 -9.9 -9.999 -99.9 -99.99 -9.99
2019/05/23 18:18 EDT  -99.99 -99.99   13  234   15  78.3 -99.9 1016.5 -9.9 -9.999 -99.9 -99.99 -9.99
2019/05/23 18:24 EDT  -99.99 -99.99   12  236   14  78.1 -99.9 1016.6 -9.9 -9.999 -99.9 -99.99 -9.99
2019/05/23 18:30 EDT  -99.99 -99.99   16  230   17  78.8 -99.9 1016.4 -9.9 -9.999 -99.9 -99.99 -9.99
2019/05/23 18:36 EDT  -99.99 -99.99   14  231   17  79.2 -99.9 1016.6 -9.9 -9.999 -99.9 -99.99 -9.99
2019/05/23 18:42 EDT  -99.99 -99.99   14  232   17  78.6 -99.9 1016.5 -9.9 -9.999 -99.9 -99.99 -9.99
2019/05/23 18:48 EDT  -99.99 -99.99   12  235   14  78.3 -99.9 1016.5 -9.9 -9.999 -99.9 -99.99 -9.99
2019/05/23 18:54 EDT  -99.99 -99.99   11  235   13  77.9 -99.9 1016.5 -9.9 -9.999 -99.9 -99.99 -9.99
2019/05/23 19:00 EDT  -99.99 -99.99   13  232   14  78.1 -99.9 1016.5 -9.9 -9.999 -99.9 -99.99 -9.99
2019/05/23 19:06 EDT  -99.99 -99.99   14  235   15  77.9 -99.9 1016.5 -9.9 -9.999 -99.9 -99.99 -9.99
2019/05/23 19:12 EDT  -99.99 -99.99   13  239   16  77.7 -99.9 1016.5 -9.9 -9.999 -99.9 -99.99 -9.99
2019/05/23 19:18 EDT  -99.99 -99.99   15  241   16  78.1 -99.9 1016.5 -9.9 -9.999 -99.9 -99.99 -9.99
2019/05/23 19:24 EDT  -99.99 -99.99   14  238   15  77.7 -99.9 1016.5 -9.9 -9.999 -99.9 -99.99 -9.99
2019/05/23 19:30 EDT  -99.99 -99.99   15  235   16  78.3 -99.9 1016.5 -9.9 -9.999 -99.9 -99.99 -9.99
2019/05/23 19:36 EDT  -99.99 -99.99   14  233   16  78.1 -99.9 1016.6 -9.9 -9.999 -99.9 -99.99 -9.99
2019/05/23 19:42 EDT  -99.99 -99.99   13  226   14  77.7 -99.9 1016.7 -9.9 -9.999 -99.9 -99.99 -9.99
2019/05/23 19:48 EDT  -99.99 -99.99   14  227   16  78.3 -99.9 1016.6 -9.9 -9.999 -99.9 -99.99 -9.99
2019/05/23 19:54 EDT  -99.99 -99.99   15  229   17  78.4 -99.9 1016.6 -9.9 -9.999 -99.9 -99.99 -9.99
2019/05/23 20:00 EDT  -99.99 -99.99   13  223   16  78.3 -99.9 1016.5 -9.9 -9.999 -99.9 -99.99 -9.99
2019/05/23 20:06 EDT  -99.99 -99.99   11  217   14  77.9 -99.9 1016.5 -9.9 -9.999 -99.9 -99.99 -9.99
2019/05/23 20:12 EDT  -99.99 -99.99   12  204   13  79.0 -99.9 1016.3 -9.9 -9.999 -99.9 -99.99 -9.99
2019/05/23 20:18 EDT  -99.99 -99.99   13  208   15  79.3 -99.9 1016.2 -9.9 -9.999 -99.9 -99.99 -9.99
2019/05/23 20:24 EDT  -99.99 -99.99   14  211   16  79.3 -99.9 1016.2 -9.9 -9.999 -99.9 -99.99 -9.99
2019/05/23 20:30 EDT  -99.99 -99.99   14  213   16  79.0 -99.9 1016.3 -9.9 -9.999 -99.9 -99.99 -9.99
2019/05/23 20:36 EDT  -99.99 -99.99   11  209   15  79.0 -99.9 1016.4 -9.9 -9.999 -99.9 -99.99 -9.99
2019/05/23 20:42 EDT  -99.99 -99.99   11  211   13  79.3 -99.9 1016.5 -9.9 -9.999 -99.9 -99.99 -9.99
2019/05/23 20:48 EDT  -99.99 -99.99   11  202   13  79.3 -99.9 1016.4 -9.9 -9.999 -99.9 -99.99 -9.99
2019/05/23 20:54 EDT  -99.99 -99.99   10  199   15  79.0 -99.9 1016.4 -9.9 -9.999 -99.9 -99.99 -9.99
2019/05/23 21:00 EDT  -99.99 -99.99   11  207   13  79.0 -99.9 1016.4 -9.9 -9.999 -99.9 -99.99 -9.99
2019/05/23 21:06 EDT  -99.99 -99.99   12  212   14  79.0 -99.9 1016.4 -9.9 -9.999 -99.9 -99.99 -9.99
2019/05/23 21:12 EDT  -99.99 -99.99   12  210   14  78.8 -99.9 1016.3 -9.9 -9.999 -99.9 -99.99 -9.99
2019/05/23 21:18 EDT  -99.99 -99.99   13  210   15  78.8 -99.9 1016.3 -9.9 -9.999 -99.9 -99.99 -9.99
2019/05/23 21:24 EDT  -99.99 -99.99   11  214   13  78.4 -99.9 1016.3 -9.9 -9.999 -99.9 -99.99 -9.99
2019/05/23 21:30 EDT  -99.99 -99.99   12  211   14  78.4 -99.9 1016.3 -9.9 -9.999 -99.9 -99.99 -9.99
2019/05/23 21:36 EDT  -99.99 -99.99   13  213   15  78.4 -99.9 1016.3 -9.9 -9.999 -99.9 -99.99 -9.99
2019/05/23 21:42 EDT  -99.99 -99.99   13  215   14  78.1 -99.9 1016.4 -9.9 -9.999 -99.9 -99.99 -9.99
2019/05/23 21:48 EDT  -99.99 -99.99   12  215   14  77.5 -99.9 1016.4 -9.9 -9.999 -99.9 -99.99 -9.99
2019/05/23 21:54 EDT  -99.99 -99.99   13  214   14  77.7 -99.9 1016.3 -9.9 -9.999 -99.9 -99.99 -9.99
2019/05/23 22:00 EDT  -99.99 -99.99   13  214   14  77.7 -99.9 1016.3 -9.9 -9.999 -99.9 -99.99 -9.99
2019/05/23 22:06 EDT  -99.99 -99.99   13  211   14  77.7 -99.9 1016.3 -9.9 -9.999 -99.9 -99.99 -9.99
2019/05/23 22:12 EDT  -99.99 -99.99   13  212   14  77.7 -99.9 1016.3 -9.9 -9.999 -99.9 -99.99 -9.99
2019/05/23 22:18 EDT  -99.99 -99.99   13  214   14  77.5 -99.9 1016.4 -9.9 -9.999 -99.9 -99.99 -9.99
2019/05/23 22:24 EDT  -99.99 -99.99   13  211   15  77.5 -99.9 1016.4 -9.9 -9.999 -99.9 -99.99 -9.99
2019/05/23 22:30 EDT  -99.99 -99.99   13  211   15  77.9 -99.9 1016.4 -9.9 -9.999 -99.9 -99.99 -9.99
2019/05/23 22:36 EDT  -99.99 -99.99   13  211   15  77.7 -99.9 1016.4 -9.9 -9.999 -99.9 -99.99 -9.99
2019/05/23 22:42 EDT  -99.99 -99.99   12  212   14  77.7 -99.9 1016.5 -9.9 -9.999 -99.9 -99.99 -9.99
2019/05/23 22:48 EDT  -99.99 -99.99   11  212   14  77.7 -99.9 1016.5 -9.9 -9.999 -99.9 -99.99 -9.99
2019/05/23 22:54 EDT  -99.99 -99.99   11  208   14  77.7 -99.9 1016.4 -9.9 -9.999 -99.9 -99.99 -9.99
2019/05/23 23:00 EDT  -99.99 -99.99   12  208   15  77.9 -99.9 1016.3 -9.9 -9.999 -99.9 -99.99 -9.99
2019/05/23 23:06 EDT  -99.99 -99.99   12  210   14  77.9 -99.9 1016.3 -9.9 -9.999 -99.9 -99.99 -9.99
2019/05/23 23:12 EDT  -99.99 -99.99   12  208   14  77.9 -99.9 1016.2 -9.9 -9.999 -99.9 -99.99 -9.99
2019/05/23 23:18 EDT  -99.99 -99.99   12  212   13  77.7 -99.9 1016.3 -9.9 -9.999 -99.9 -99.99 -9.99
2019/05/23 23:24 EDT  -99.99 -99.99   11  211   13  77.7 -99.9 1016.3 -9.9 -9.999 -99.9 -99.99 -9.99
2019/05/23 23:30 EDT  -99.99 -99.99   12  213   14  77.2 -99.9 1016.2 -9.9 -9.999 -99.9 -99.99 -9.99
2019/05/23 23:36 EDT  -99.99 -99.99   12  213   13  77.2 -99.9 1016.2 -9.9 -9.999 -99.9 -99.99 -9.99
2019/05/23 23:42 EDT  -99.99 -99.99   13  210   15  77.4 -99.9 1016.0 -9.9 -9.999 -99.9 -99.99 -9.99
2019/05/23 23:48 EDT  -99.99 -99.99   14  207   15  77.5 -99.9 1015.9 -9.9 -9.999 -99.9 -99.99 -9.99
2019/05/23 23:54 EDT  -99.99 -99.99   13  210   16  77.5 -99.9 1016.0 -9.9 -9.999 -99.9 -99.99 -9.99
2019/05/24 00:00 EDT  -99.99 -99.99   11  211   14  77.2 -99.9 1016.0 -9.9 -9.999 -99.9 -99.99 -9.99
2019/05/24 00:06 EDT  -99.99 -99.99   13  211   14  77.2 -99.9 1015.9 -9.9 -9.999 -99.9 -99.99 -9.99
2019/05/24 00:12 EDT  -99.99 -99.99   13  212   16  77.0 -99.9 1015.9 -9.9 -9.999 -99.9 -99.99 -9.99
2019/05/24 00:18 EDT  -99.99 -99.99   14  213   15  76.6 -99.9 1015.8 -9.9 -9.999 -99.9 -99.99 -9.99
2019/05/24 00:24 EDT  -99.99 -99.99   16  210   17  77.2 -99.9 1015.6 -9.9 -9.999 -99.9 -99.99 -9.99
2019/05/24 00:30 EDT  -99.99 -99.99   15  211   17  77.0 -99.9 1015.6 -9.9 -9.999 -99.9 -99.99 -9.99
2019/05/24 00:36 EDT  -99.99 -99.99   16  214   18  77.0 -99.9 1015.6 -9.9 -9.999 -99.9 -99.99 -9.99
2019/05/24 00:42 EDT  -99.99 -99.99   16  211   17  76.8 -99.9 1015.4 -9.9 -9.999 -99.9 -99.99 -9.99
2019/05/24 00:48 EDT  -99.99 -99.99   15  213   18  76.6 -99.9 1015.3 -9.9 -9.999 -99.9 -99.99 -9.99
2019/05/24 00:54 EDT  -99.99 -99.99   16  214   17  76.6 -99.9 1015.3 -9.9 -9.999 -99.9 -99.99 -9.99
2019/05/24 01:00 EDT  -99.99 -99.99   16  214   18  76.6 -99.9 1015.3 -9.9 -9.999 -99.9 -99.99 -9.99
2019/05/24 01:06 EDT  -99.99 -99.99   16  216   18  76.5 -99.9 1015.3 -9.9 -9.999 -99.9 -99.99 -9.99
2019/05/24 01:12 EDT  -99.99 -99.99   17  214   18  76.6 -99.9 1015.1 -9.9 -9.999 -99.9 -99.99 -9.99
2019/05/24 01:18 EDT  -99.99 -99.99   17  213   19  76.8 -99.9 1015.0 -9.9 -9.999 -99.9 -99.99 -9.99
2019/05/24 01:24 EDT  -99.99 -99.99   16  216   19  76.8 -99.9 1015.1 -9.9 -9.999 -99.9 -99.99 -9.99
2019/05/24 01:30 EDT  -99.99 -99.99   16  215   22  76.8 -99.9 1014.9 -9.9 -9.999 -99.9 -99.99 -9.99
2019/05/24 01:36 EDT  -99.99 -99.99   17  223   21  77.0 -99.9 1014.9 -9.9 -9.999 -99.9 -99.99 -9.99
2019/05/24 01:42 EDT  -99.99 -99.99   17  224   20  77.2 -99.9 1014.8 -9.9 -9.999 -99.9 -99.99 -9.99
2019/05/24 01:48 EDT  -99.99 -99.99   18  233   22  77.2 -99.9 1014.7 -9.9 -9.999 -99.9 -99.99 -9.99
2019/05/24 01:54 EDT  -99.99 -99.99   19  234   22  77.2 -99.9 1014.5 -9.9 -9.999 -99.9 -99.99 -9.99
2019/05/24 02:00 EDT  -99.99 -99.99   19  232   22  77.0 -99.9 1014.5 -9.9 -9.999 -99.9 -99.99 -9.99
2019/05/24 02:06 EDT  -99.99 -99.99   18  236   21  76.8 -99.9 1014.5 -9.9 -9.999 -99.9 -99.99 -9.99
2019/05/24 02:12 EDT  -99.99 -99.99   17  239   20  76.8 -99.9 1014.5 -9.9 -9.999 -99.9 -99.99 -9.99
2019/05/24 02:18 EDT  -99.99 -99.99   15  238   19  76.6 -99.9 1014.5 -9.9 -9.999 -99.9 -99.99 -9.99
2019/05/24 02:24 EDT  -99.99 -99.99   16  238   19  76.5 -99.9 1014.5 -9.9 -9.999 -99.9 -99.99 -9.99
2019/05/24 02:30 EDT  -99.99 -99.99   16  236   19  76.5 -99.9 1014.3 -9.9 -9.999 -99.9 -99.99 -9.99
2019/05/24 02:36 EDT  -99.99 -99.99   15  237   18  76.3 -99.9 1014.3 -9.9 -9.999 -99.9 -99.99 -9.99
2019/05/24 02:42 EDT  -99.99 -99.99   16  235   19  76.5 -99.9 1014.1 -9.9 -9.999 -99.9 -99.99 -9.99
2019/05/24 02:48 EDT  -99.99 -99.99   17  234   20  76.1 -99.9 1014.0 -9.9 -9.999 -99.9 -99.99 -9.99
2019/05/24 02:54 EDT  -99.99 -99.99   18  232   21  76.5 -99.9 1013.9 -9.9 -9.999 -99.9 -99.99 -9.99
2019/05/24 03:00 EDT  -99.99 -99.99   17  231   20  76.3 -99.9 1013.9 -9.9 -9.999 -99.9 -99.99 -9.99
2019/05/24 03:06 EDT  -99.99 -99.99   18  231   20  76.1 -99.9 1013.8 -9.9 -9.999 -99.9 -99.99 -9.99
2019/05/24 03:12 EDT  -99.99 -99.99   18  233   21  76.3 -99.9 1013.8 -9.9 -9.999 -99.9 -99.99 -9.99
2019/05/24 03:18 EDT  -99.99 -99.99   18  229   20  76.1 -99.9 1013.7 -9.9 -9.999 -99.9 -99.99 -9.99
2019/05/24 03:24 EDT  -99.99 -99.99   17  235   22  76.5 -99.9 1013.7 -9.9 -9.999 -99.9 -99.99 -9.99
2019/05/24 03:30 EDT  -99.99 -99.99   17  233   19  76.1 -99.9 1013.7 -9.9 -9.999 -99.9 -99.99 -9.99
2019/05/24 03:36 EDT  -99.99 -99.99   18  235   20  76.1 -99.9 1013.7 -9.9 -9.999 -99.9 -99.99 -9.99
2019/05/24 03:42 EDT  -99.99 -99.99   18  231   20  75.9 -99.9 1013.7 -9.9 -9.999 -99.9 -99.99 -9.99
2019/05/24 03:48 EDT  -99.99 -99.99   17  230   19  75.7 -99.9 1013.6 -9.9 -9.999 -99.9 -99.99 -9.99
2019/05/24 03:54 EDT  -99.99 -99.99   16  234   18  75.6 -99.9 1013.7 -9.9 -9.999 -99.9 -99.99 -9.99
2019/05/24 04:00 EDT  -99.99 -99.99   16  234   18  75.6 -99.9 1013.8 -9.9 -9.999 -99.9 -99.99 -9.99
2019/05/24 04:06 EDT  -99.99 -99.99   13  238   17  75.4 -99.9 1013.8 -9.9 -9.999 -99.9 -99.99 -9.99
2019/05/24 04:12 EDT  -99.99 -99.99   13  239   14  75.2 -99.9 1013.8 -9.9 -9.999 -99.9 -99.99 -9.99
2019/05/24 04:18 EDT  -99.99 -99.99   12  238   14  75.0 -99.9 1013.8 -9.9 -9.999 -99.9 -99.99 -9.99
2019/05/24 04:24 EDT  -99.99 -99.99   12  237   15  75.0 -99.9 1013.7 -9.9 -9.999 -99.9 -99.99 -9.99
2019/05/24 04:30 EDT  -99.99 -99.99   11  239   14  74.8 -99.9 1013.8 -9.9 -9.999 -99.9 -99.99 -9.99
2019/05/24 04:36 EDT  -99.99 -99.99   11  243   13  75.2 -99.9 1013.9 -9.9 -9.999 -99.9 -99.99 -9.99
2019/05/24 04:42 EDT  -99.99 -99.99   10  242   13  74.8 -99.9 1013.9 -9.9 -9.999 -99.9 -99.99 -9.99
2019/05/24 04:48 EDT  -99.99 -99.99   11  243   14  75.2 -99.9 1013.8 -9.9 -9.999 -99.9 -99.99 -9.99
2019/05/24 04:54 EDT  -99.99 -99.99    8  240   10  74.7 -99.9 1013.9 -9.9 -9.999 -99.9 -99.99 -9.99
2019/05/24 05:00 EDT  -99.99 -99.99    9  243   10  74.8 -99.9 1014.0 -9.9 -9.999 -99.9 -99.99 -9.99
2019/05/24 05:06 EDT  -99.99 -99.99    9  244   10  74.8 -99.9 1014.0 -9.9 -9.999 -99.9 -99.99 -9.99
2019/05/24 05:12 EDT  -99.99 -99.99   11  242   13  75.6 -99.9 1013.8 -9.9 -9.999 -99.9 -99.99 -9.99
2019/05/24 05:18 EDT  -99.99 -99.99   10  242   11  74.8 -99.9 1013.9 -9.9 -9.999 -99.9 -99.99 -9.99
2019/05/24 05:24 EDT  -99.99 -99.99   10  245   11  74.8 -99.9 1014.0 -9.9 -9.999 -99.9 -99.99 -9.99
2019/05/24 05:30 EDT  -99.99 -99.99    9  242   10  74.8 -99.9 1014.0 -9.9 -9.999 -99.9 -99.99 -9.99
2019/05/24 05:36 EDT  -99.99 -99.99    8  240   10  74.7 -99.9 1014.0 -9.9 -9.999 -99.9 -99.99 -9.99
2019/05/24 05:42 EDT  -99.99 -99.99    8  239   10  74.8 -99.9 1014.1 -9.9 -9.999 -99.9 -99.99 -9.99
2019/05/24 05:48 EDT  -99.99 -99.99    9  238   10  74.8 -99.9 1014.2 -9.9 -9.999 -99.9 -99.99 -9.99
2019/05/24 05:54 EDT  -99.99 -99.99   10  234   11  74.8 -99.9 1014.1 -9.9 -9.999 -99.9 -99.99 -9.99
2019/05/24 06:00 EDT  -99.99 -99.99   10  237   11  74.8 -99.9 1014.1 -9.9 -9.999 -99.9 -99.99 -9.99
2019/05/24 06:06 EDT  -99.99 -99.99    9  236   11  75.0 -99.9 1014.1 -9.9 -9.999 -99.9 -99.99 -9.99
2019/05/24 06:12 EDT  -99.99 -99.99   10  237   11  75.0 -99.9 1014.1 -9.9 -9.999 -99.9 -99.99 -9.99
2019/05/24 06:18 EDT  -99.99 -99.99   11  239   12  75.2 -99.9 1014.1 -9.9 -9.999 -99.9 -99.99 -9.99
2019/05/24 06:24 EDT  -99.99 -99.99   11  242   13  75.0 -99.9 1014.1 -9.9 -9.999 -99.9 -99.99 -9.99
2019/05/24 06:30 EDT  -99.99 -99.99   11  241   13  74.8 -99.9 1014.2 -9.9 -9.999 -99.9 -99.99 -9.99
2019/05/24 06:36 EDT  -99.99 -99.99    9  241   11  74.8 -99.9 1014.2 -9.9 -9.999 -99.9 -99.99 -9.99
2019/05/24 06:42 EDT  -99.99 -99.99   10  244   11  74.8 -99.9 1014.3 -9.9 -9.999 -99.9 -99.99 -9.99
2019/05/24 06:48 EDT  -99.99 -99.99   11  246   12  74.8 -99.9 1014.3 -9.9 -9.999 -99.9 -99.99 -9.99
2019/05/24 06:54 EDT  -99.99 -99.99   11  245   12  74.8 -99.9 1014.3 -9.9 -9.999 -99.9 -99.99 -9.99
2019/05/24 07:00 EDT  -99.99 -99.99   11  243   13  74.8 -99.9 1014.3 -9.9 -9.999 -99.9 -99.99 -9.99
2019/05/24 07:06 EDT  -99.99 -99.99   11  245   12  74.8 -99.9 1014.4 -9.9 -9.999 -99.9 -99.99 -9.99
2019/05/24 07:12 EDT  -99.99 -99.99   10  248   12  74.7 -99.9 1014.5 -9.9 -9.999 -99.9 -99.99 -9.99
2019/05/24 07:18 EDT  -99.99 -99.99   10  248   13  74.8 -99.9 1014.6 -9.9 -9.999 -99.9 -99.99 -9.99
2019/05/24 07:24 EDT  -99.99 -99.99   10  247   12  75.2 -99.9 1014.6 -9.9 -9.999 -99.9 -99.99 -9.99
2019/05/24 07:30 EDT  -99.99 -99.99   10  245   12  74.7 -99.9 1014.5 -9.9 -9.999 -99.9 -99.99 -9.99
2019/05/24 07:36 EDT  -99.99 -99.99   11  246   12  75.0 -99.9 1014.4 -9.9 -9.999 -99.9 -99.99 -9.99
2019/05/24 07:42 EDT  -99.99 -99.99   10  242   11  75.0 -99.9 1014.3 -9.9 -9.999 -99.9 -99.99 -9.99
2019/05/24 07:48 EDT  -99.99 -99.99   11  239   11  75.2 -99.9 1014.3 -9.9 -9.999 -99.9 -99.99 -9.99
2019/05/24 07:54 EDT  -99.99 -99.99   11  238   11  75.0 -99.9 1014.4 -9.9 -9.999 -99.9 -99.99 -9.99
2019/05/24 08:00 EDT  -99.99 -99.99   11  239   12  75.2 -99.9 1014.3 -9.9 -9.999 -99.9 -99.99 -9.99
2019/05/24 08:06 EDT  -99.99 -99.99   11  238   12  75.2 -99.9 1014.3 -9.9 -9.999 -99.9 -99.99 -9.99
2019/05/24 08:12 EDT  -99.99 -99.99   11  246   12  75.2 -99.9 1014.5 -9.9 -9.999 -99.9 -99.99 -9.99
2019/05/24 08:18 EDT  -99.99 -99.99   11  250   13  75.4 -99.9 1014.7 -9.9 -9.999 -99.9 -99.99 -9.99
2019/05/24 08:24 EDT  -99.99 -99.99   11  258   13  75.7 -99.9 1014.8 -9.9 -9.999 -99.9 -99.99 -9.99
2019/05/24 08:30 EDT  -99.99 -99.99   11  261   14  76.8 -99.9 1014.9 -9.9 -9.999 -99.9 -99.99 -9.99
2019/05/24 08:36 EDT  -99.99 -99.99   11  266   12  77.0 -99.9 1014.9 -9.9 -9.999 -99.9 -99.99 -9.99
2019/05/24 08:42 EDT  -99.99 -99.99   11  264   12  77.2 -99.9 1014.8 -9.9 -9.999 -99.9 -99.99 -9.99
2019/05/24 08:48 EDT  -99.99 -99.99   10  269   12  77.2 -99.9 1014.9 -9.9 -9.999 -99.9 -99.99 -9.99
2019/05/24 08:54 EDT  -99.99 -99.99   11  279   13  77.9 -99.9 1014.9 -9.9 -9.999 -99.9 -99.99 -9.99
2019/05/24 09:00 EDT  -99.99 -99.99   12  278   15  78.3 -99.9 1014.9 -9.9 -9.999 -99.9 -99.99 -9.99
2019/05/24 09:06 EDT  -99.99 -99.99   13  284   15  78.3 -99.9 1014.9 -9.9 -9.999 -99.9 -99.99 -9.99
2019/05/24 09:12 EDT  -99.99 -99.99   15  283   17  78.1 -99.9 1015.0 -9.9 -9.999 -99.9 -99.99 -9.99
2019/05/24 09:18 EDT  -99.99 -99.99   15  283   17  78.4 -99.9 1015.0 -9.9 -9.999 -99.9 -99.99 -9.99
2019/05/24 09:24 EDT  -99.99 -99.99   15  280   18  78.8 -99.9 1015.0 -9.9 -9.999 -99.9 -99.99 -9.99
2019/05/24 09:30 EDT  -99.99 -99.99   14  279   16  78.6 -99.9 1015.1 -9.9 -9.999 -99.9 -99.99 -9.99
2019/05/24 09:36 EDT  -99.99 -99.99   13  282   15  78.8 -99.9 1015.0 -9.9 -9.999 -99.9 -99.99 -9.99
2019/05/24 09:42 EDT  -99.99 -99.99   12  279   14  78.6 -99.9 1015.0 -9.9 -9.999 -99.9 -99.99 -9.99
2019/05/24 09:48 EDT  -99.99 -99.99   13  279   15  79.0 -99.9 1015.0 -9.9 -9.999 -99.9 -99.99 -9.99
2019/05/24 09:54 EDT  -99.99 -99.99   12  282   14  79.2 -99.9 1015.2 -9.9 -9.999 -99.9 -99.99 -9.99
2019/05/24 10:00 EDT  -99.99 -99.99   13  280   14  79.7 -99.9 1015.2 -9.9 -9.999 -99.9 -99.99 -9.99
2019/05/24 10:06 EDT  -99.99 -99.99   10  278   13  79.9 -99.9 1015.3 -9.9 -9.999 -99.9 -99.99 -9.99
2019/05/24 10:12 EDT  -99.99 -99.99   10  280   13  80.4 -99.9 1015.1 -9.9 -9.999 -99.9 -99.99 -9.99
2019/05/24 10:18 EDT  -99.99 -99.99    8  280   11  80.4 -99.9 1015.0 -9.9 -9.999 -99.9 -99.99 -9.99
2019/05/24 10:24 EDT  -99.99 -99.99    9  293   11  81.1 -99.9 1015.0 -9.9 -9.999 -99.9 -99.99 -9.99
2019/05/24 10:30 EDT  -99.99 -99.99   10  306   15  81.9 -99.9 1015.0 -9.9 -9.999 -99.9 -99.99 -9.99
2019/05/24 10:36 EDT  -99.99 -99.99   16  307   17  82.9 -99.9 1015.1 -9.9 -9.999 -99.9 -99.99 -9.99
2019/05/24 10:42 EDT  -99.99 -99.99   12  320   16  83.1 -99.9 1015.1 -9.9 -9.999 -99.9 -99.99 -9.99
2019/05/24 10:48 EDT  -99.99 -99.99   12  308   15  82.4 -99.9 1015.1 -9.9 -9.999 -99.9 -99.99 -9.99
2019/05/24 10:54 EDT  -99.99 -99.99   11  310   14  82.2 -99.9 1015.2 -9.9 -9.999 -99.9 -99.99 -9.99
2019/05/24 11:00 EDT  -99.99 -99.99    9  312   12  81.3 -99.9 1015.0 -9.9 -9.999 -99.9 -99.99 -9.99
2019/05/24 11:06 EDT  -99.99 -99.99   10  298   11  82.2 -99.9 1015.1 -9.9 -9.999 -99.9 -99.99 -9.99
2019/05/24 11:12 EDT  -99.99 -99.99    8  314   12  82.6 -99.9 1015.2 -9.9 -9.999 -99.9 -99.99 -9.99
2019/05/24 11:18 EDT  -99.99 -99.99    8  319   10  83.1 -99.9 1015.4 -9.9 -9.999 -99.9 -99.99 -9.99
2019/05/24 11:24 EDT  -99.99 -99.99    7   49   14  75.6 -99.9 1015.4 -9.9 -9.999 -99.9 -99.99 -9.99
2019/05/24 11:30 EDT  -99.99 -99.99   12   46   18  74.8 -99.9 1015.3 -9.9 -9.999 -99.9 -99.99 -9.99
2019/05/24 11:36 EDT  -99.99 -99.99   11   43   15  74.7 -99.9 1015.4 -9.9 -9.999 -99.9 -99.99 -9.99
2019/05/24 11:42 EDT  -99.99 -99.99   11   50   13  74.5 -99.9 1015.4 -9.9 -9.999 -99.9 -99.99 -9.99
2019/05/24 11:48 EDT  -99.99 -99.99   10   44   12  74.1 -99.9 1015.4 -9.9 -9.999 -99.9 -99.99 -9.99
2019/05/24 11:54 EDT  -99.99 -99.99   11   46   12  74.1 -99.9 1015.3 -9.9 -9.999 -99.9 -99.99 -9.99
2019/05/24 12:00 EDT  -99.99 -99.99   11   47   13  73.9 -99.9 1015.3 -9.9 -9.999 -99.9 -99.99 -9.99
2019/05/24 12:06 EDT  -99.99 -99.99   11   42   13  73.8 -99.9 1015.4 -9.9 -9.999 -99.9 -99.99 -9.99
2019/05/24 12:12 EDT  -99.99 -99.99   12   45   14  73.8 -99.9 1015.3 -9.9 -9.999 -99.9 -99.99 -9.99
2019/05/24 12:18 EDT  -99.99 -99.99   12   44   13  73.8 -99.9 1015.3 -9.9 -9.999 -99.9 -99.99 -9.99
2019/05/24 12:24 EDT  -99.99 -99.99   13   46   14  73.6 -99.9 1015.4 -9.9 -9.999 -99.9 -99.99 -9.99
2019/05/24 12:30 EDT  -99.99 -99.99   12   46   14  73.8 -99.9 1015.4 -9.9 -9.999 -99.9 -99.99 -9.99
2019/05/24 12:36 EDT  -99.99 -99.99   12   48   14  73.6 -99.9 1015.5 -9.9 -9.999 -99.9 -99.99 -9.99
2019/05/24 12:42 EDT  -99.99 -99.99   13   40   14  73.4 -99.9 1015.6 -9.9 -9.999 -99.9 -99.99 -9.99
2019/05/24 12:48 EDT  -99.99 -99.99   14   36   16  73.4 -99.9 1015.5 -9.9 -9.999 -99.9 -99.99 -9.99
2019/05/24 12:54 EDT  -99.99 -99.99   13   37   16  73.4 -99.9 1015.4 -9.9 -9.999 -99.9 -99.99 -9.99
2019/05/24 13:00 EDT  -99.99 -99.99   14   32   15  73.6 -99.9 1015.4 -9.9 -9.999 -99.9 -99.99 -9.99
2019/05/24 13:06 EDT  -99.99 -99.99   15   30   17  73.6 -99.9 1015.3 -9.9 -9.999 -99.9 -99.99 -9.99
2019/05/24 13:12 EDT  -99.99 -99.99   14   31   16  73.8 -99.9 1015.2 -9.9 -9.999 -99.9 -99.99 -9.99
2019/05/24 13:18 EDT  -99.99 -99.99   15   32   16  73.8 -99.9 1015.2 -9.9 -9.999 -99.9 -99.99 -9.99
2019/05/24 13:24 EDT  -99.99 -99.99   15   31   16  73.8 -99.9 1015.2 -9.9 -9.999 -99.9 -99.99 -9.99
2019/05/24 13:30 EDT  -99.99 -99.99   15   32   17  73.8 -99.9 1015.2 -9.9 -9.999 -99.9 -99.99 -9.99
2019/05/24 13:36 EDT  -99.99 -99.99   16   35   17  73.9 -99.9 1015.1 -9.9 -9.999 -99.9 -99.99 -9.99
2019/05/24 13:42 EDT  -99.99 -99.99   15   31   18  73.9 -99.9 1015.2 -9.9 -9.999 -99.9 -99.99 -9.99
2019/05/24 13:48 EDT  -99.99 -99.99   14   34   16  73.8 -99.9 1015.2 -9.9 -9.999 -99.9 -99.99 -9.99
2019/05/24 13:54 EDT  -99.99 -99.99   14   29   15  73.8 -99.9 1015.1 -9.9 -9.999 -99.9 -99.99 -9.99
2019/05/24 14:00 EDT  -99.99 -99.99   13   34   15  73.9 -99.9 1015.0 -9.9 -9.999 -99.9 -99.99 -9.99
2019/05/24 14:06 EDT  -99.99 -99.99   13   32   16  73.9 -99.9 1015.0 -9.9 -9.999 -99.9 -99.99 -9.99
2019/05/24 14:12 EDT  -99.99 -99.99   15   28   17  74.1 -99.9 1015.1 -9.9 -9.999 -99.9 -99.99 -9.99
2019/05/24 14:18 EDT  -99.99 -99.99   15   30   17  73.9 -99.9 1015.0 -9.9 -9.999 -99.9 -99.99 -9.99
2019/05/24 14:24 EDT  -99.99 -99.99 -999 -999 -999 -99.9 -99.9 1014.9 -9.9 -9.999 -99.9 -99.99 -9.99
2019/05/24 14:30 EDT  -99.99 -99.99   16   29   17  74.1 -99.9 1015.0 -9.9 -9.999 -99.9 -99.99 -9.99
2019/05/24 14:36 EDT  -99.99 -99.99   15   30   17  74.1 -99.9 1015.0 -9.9 -9.999 -99.9 -99.99 -9.99
2019/05/24 14:42 EDT  -99.99 -99.99   15   30   17  74.3 -99.9 1015.1 -9.9 -9.999 -99.9 -99.99 -9.99
2019/05/24 14:48 EDT  -99.99 -99.99   16   29   18  74.5 -99.9 1015.0 -9.9 -9.999 -99.9 -99.99 -9.99
2019/05/24 14:54 EDT  -99.99 -99.99   15   25   18  74.5 -99.9 1015.0 -9.9 -9.999 -99.9 -99.99 -9.99
2019/05/24 15:00 EDT  -99.99 -99.99   13   24   16  74.5 -99.9 1014.9 -9.9 -9.999 -99.9 -99.99 -9.99
2019/05/24 15:06 EDT  -99.99 -99.99   12   26   14  74.5 -99.9 1014.9 -9.9 -9.999 -99.9 -99.99 -9.99
2019/05/24 15:12 EDT  -99.99 -99.99   12   33   13  74.5 -99.9 1014.8 -9.9 -9.999 -99.9 -99.99 -9.99
2019/05/24 15:18 EDT  -99.99 -99.99   13   39   15  74.3 -99.9 1014.8 -9.9 -9.999 -99.9 -99.99 -9.99
2019/05/24 15:24 EDT  -99.99 -99.99   11   39   14  74.3 -99.9 1014.8 -9.9 -9.999 -99.9 -99.99 -9.99
2019/05/24 15:30 EDT  -99.99 -99.99   13   37   14  74.5 -99.9 1014.7 -9.9 -9.999 -99.9 -99.99 -9.99
2019/05/24 15:36 EDT  -99.99 -99.99   13   35   15  74.7 -99.9 1014.8 -9.9 -9.999 -99.9 -99.99 -9.99
2019/05/24 15:42 EDT  -99.99 -99.99   10   34   13  74.7 -99.9 1014.9 -9.9 -9.999 -99.9 -99.99 -9.99
2019/05/24 15:48 EDT  -99.99 -99.99   10   32   11  74.8 -99.9 1015.0 -9.9 -9.999 -99.9 -99.99 -9.99
2019/05/24 15:54 EDT  -99.99 -99.99   10   33   12  74.8 -99.9 1015.1 -9.9 -9.999 -99.9 -99.99 -9.99
2019/05/24 16:00 EDT  -99.99 -99.99   10   32   12  74.7 -99.9 1015.1 -9.9 -9.999 -99.9 -99.99 -9.99
2019/05/24 16:06 EDT  -99.99 -99.99   11   24   12  74.7 -99.9 1015.1 -9.9 -9.999 -99.9 -99.99 -9.99
2019/05/24 16:12 EDT  -99.99 -99.99   10   22   13  74.5 -99.9 1015.2 -9.9 -9.999 -99.9 -99.99 -9.99
2019/05/24 16:18 EDT  -99.99 -99.99   11   21   12  74.5 -99.9 1015.3 -9.9 -9.999 -99.9 -99.99 -9.99
2019/05/24 16:24 EDT  -99.99 -99.99   11   22   13  74.3 -99.9 1015.2 -9.9 -9.999 -99.9 -99.99 -9.99
2019/05/24 16:30 EDT  -99.99 -99.99   11   23   13  74.3 -99.9 1015.2 -9.9 -9.999 -99.9 -99.99 -9.99
2019/05/24 16:36 EDT  -99.99 -99.99   11   22   12  74.3 -99.9 1015.1 -9.9 -9.999 -99.9 -99.99 -9.99
2019/05/24 16:42 EDT  -99.99 -99.99   11   23   12  74.3 -99.9 1015.1 -9.9 -9.999 -99.9 -99.99 -9.99
2019/05/24 16:48 EDT  -99.99 -99.99   11   20   12  74.3 -99.9 1015.1 -9.9 -9.999 -99.9 -99.99 -9.99
2019/05/24 16:54 EDT  -99.99 -99.99   11   23   13  74.5 -99.9 1015.1 -9.9 -9.999 -99.9 -99.99 -9.99
2019/05/24 17:00 EDT  -99.99 -99.99   11   25   13  74.7 -99.9 1015.1 -9.9 -9.999 -99.9 -99.99 -9.99
2019/05/24 17:06 EDT  -99.99 -99.99   11   24   12  75.0 -99.9 1015.2 -9.9 -9.999 -99.9 -99.99 -9.99
2019/05/24 17:12 EDT  -99.99 -99.99   11   21   13  75.4 -99.9 1015.4 -9.9 -9.999 -99.9 -99.99 -9.99
2019/05/24 17:18 EDT  -99.99 -99.99   13   20   15  75.6 -99.9 1015.4 -9.9 -9.999 -99.9 -99.99 -9.99
2019/05/24 17:24 EDT  -99.99 -99.99 -999 -999 -999 -99.9 -99.9 -999.9 -9.9 -9.999 -99.9 -99.99 -9.99
2019/05/24 17:30 EDT  -99.99 -99.99 -999 -999 -999 -99.9 -99.9 -999.9 -9.9 -9.999 -99.9 -99.99 -9.99

Revised: 08/08/2018
NOAA / National Ocean Service
Web site owner: Center for Operational Oceanographic Products and Services